<?xml version="1.0" encoding="UTF-8" standalone="no" ?>
<gpx xmlns="http://www.topografix.com/GPX/1/1" xmlns:xsi="http://www.w3.org/2001/XMLSchema-instance" xsi:schemaLocation="http://www.topografix.com/GPX/1/1 http://www.topografix.com/GPX/1/1/gpx.xsd" version="1.1" creator="VisuGPX - https://www.visugpx.com">
  <metadata>
    <name>Randonnée du 02/08/2020 à 09:12</name>
  </metadata>
  <trk>
    <name><![CDATA[Randonnée du 02/08/2020 à 09:12]]></name>
    <trkseg>
      <trkpt lat="44.9728" lon="5.82524">
        <ele>1551</ele>
        <time>2020-08-02T09:13:04+02:00</time>
      </trkpt>
      <trkpt lat="44.97271" lon="5.82531">
        <ele>1558</ele>
        <time>2020-08-02T09:13:04+02:00</time>
      </trkpt>
      <trkpt lat="44.97265" lon="5.82542">
        <ele>1560</ele>
        <time>2020-08-02T09:13:04+02:00</time>
      </trkpt>
      <trkpt lat="44.97258" lon="5.82548">
        <ele>1560</ele>
        <time>2020-08-02T09:13:04+02:00</time>
      </trkpt>
      <trkpt lat="44.97248" lon="5.82556">
        <ele>1559</ele>
        <time>2020-08-02T09:13:04+02:00</time>
      </trkpt>
      <trkpt lat="44.97246" lon="5.82569">
        <ele>1560</ele>
        <time>2020-08-02T09:13:04+02:00</time>
      </trkpt>
      <trkpt lat="44.97246" lon="5.82583">
        <ele>1558</ele>
        <time>2020-08-02T09:13:04+02:00</time>
      </trkpt>
      <trkpt lat="44.97243" lon="5.82597">
        <ele>1557</ele>
        <time>2020-08-02T09:15:12+02:00</time>
      </trkpt>
      <trkpt lat="44.97241" lon="5.82609">
        <ele>1557</ele>
        <time>2020-08-02T09:15:12+02:00</time>
      </trkpt>
      <trkpt lat="44.97239" lon="5.82623">
        <ele>1557</ele>
        <time>2020-08-02T09:15:12+02:00</time>
      </trkpt>
      <trkpt lat="44.97238" lon="5.82636">
        <ele>1556</ele>
        <time>2020-08-02T09:15:12+02:00</time>
      </trkpt>
      <trkpt lat="44.97236" lon="5.82649">
        <ele>1555</ele>
        <time>2020-08-02T09:15:12+02:00</time>
      </trkpt>
      <trkpt lat="44.97234" lon="5.82662">
        <ele>1556</ele>
        <time>2020-08-02T09:15:12+02:00</time>
      </trkpt>
      <trkpt lat="44.97233" lon="5.82676">
        <ele>1556</ele>
        <time>2020-08-02T09:15:12+02:00</time>
      </trkpt>
      <trkpt lat="44.97232" lon="5.82689">
        <ele>1557</ele>
        <time>2020-08-02T09:15:12+02:00</time>
      </trkpt>
      <trkpt lat="44.97231" lon="5.82702">
        <ele>1557</ele>
        <time>2020-08-02T09:15:12+02:00</time>
      </trkpt>
      <trkpt lat="44.9723" lon="5.82715">
        <ele>1560</ele>
        <time>2020-08-02T09:15:12+02:00</time>
      </trkpt>
      <trkpt lat="44.97233" lon="5.82728">
        <ele>1563</ele>
        <time>2020-08-02T09:15:12+02:00</time>
      </trkpt>
      <trkpt lat="44.97239" lon="5.82739">
        <ele>1564</ele>
        <time>2020-08-02T09:15:12+02:00</time>
      </trkpt>
      <trkpt lat="44.9724" lon="5.82752">
        <ele>1567</ele>
        <time>2020-08-02T09:17:20+02:00</time>
      </trkpt>
      <trkpt lat="44.97244" lon="5.82764">
        <ele>1569</ele>
        <time>2020-08-02T09:17:20+02:00</time>
      </trkpt>
      <trkpt lat="44.9724" lon="5.82753">
        <ele>1573</ele>
        <time>2020-08-02T09:17:20+02:00</time>
      </trkpt>
      <trkpt lat="44.97236" lon="5.8274">
        <ele>1573</ele>
        <time>2020-08-02T09:17:20+02:00</time>
      </trkpt>
      <trkpt lat="44.97233" lon="5.82728">
        <ele>1571</ele>
        <time>2020-08-02T09:17:20+02:00</time>
      </trkpt>
      <trkpt lat="44.9723" lon="5.82715">
        <ele>1569</ele>
        <time>2020-08-02T09:17:20+02:00</time>
      </trkpt>
      <trkpt lat="44.97231" lon="5.82702">
        <ele>1567</ele>
        <time>2020-08-02T09:17:20+02:00</time>
      </trkpt>
      <trkpt lat="44.97231" lon="5.82689">
        <ele>1564</ele>
        <time>2020-08-02T09:17:20+02:00</time>
      </trkpt>
      <trkpt lat="44.97233" lon="5.82676">
        <ele>1563</ele>
        <time>2020-08-02T09:17:20+02:00</time>
      </trkpt>
      <trkpt lat="44.97234" lon="5.82662">
        <ele>1560</ele>
        <time>2020-08-02T09:19:28+02:00</time>
      </trkpt>
      <trkpt lat="44.97235" lon="5.82648">
        <ele>1558</ele>
        <time>2020-08-02T09:19:28+02:00</time>
      </trkpt>
      <trkpt lat="44.97236" lon="5.82635">
        <ele>1557</ele>
        <time>2020-08-02T09:19:28+02:00</time>
      </trkpt>
      <trkpt lat="44.97238" lon="5.82621">
        <ele>1555</ele>
        <time>2020-08-02T09:19:28+02:00</time>
      </trkpt>
      <trkpt lat="44.9724" lon="5.82608">
        <ele>1555</ele>
        <time>2020-08-02T09:19:28+02:00</time>
      </trkpt>
      <trkpt lat="44.97242" lon="5.82594">
        <ele>1554</ele>
        <time>2020-08-02T09:19:28+02:00</time>
      </trkpt>
      <trkpt lat="44.97245" lon="5.82581">
        <ele>1554</ele>
        <time>2020-08-02T09:19:28+02:00</time>
      </trkpt>
      <trkpt lat="44.97246" lon="5.82567">
        <ele>1553</ele>
        <time>2020-08-02T09:19:28+02:00</time>
      </trkpt>
      <trkpt lat="44.97248" lon="5.82554">
        <ele>1553</ele>
        <time>2020-08-02T09:19:28+02:00</time>
      </trkpt>
      <trkpt lat="44.97258" lon="5.82555">
        <ele>1554</ele>
        <time>2020-08-02T09:19:28+02:00</time>
      </trkpt>
      <trkpt lat="44.97262" lon="5.82543">
        <ele>1557</ele>
        <time>2020-08-02T09:19:28+02:00</time>
      </trkpt>
      <trkpt lat="44.97269" lon="5.82534">
        <ele>1557</ele>
        <time>2020-08-02T09:19:28+02:00</time>
      </trkpt>
      <trkpt lat="44.97275" lon="5.82523">
        <ele>1558</ele>
        <time>2020-08-02T09:19:28+02:00</time>
      </trkpt>
      <trkpt lat="44.97281" lon="5.82512">
        <ele>1558</ele>
        <time>2020-08-02T09:19:28+02:00</time>
      </trkpt>
      <trkpt lat="44.97284" lon="5.825">
        <ele>1560</ele>
        <time>2020-08-02T09:19:28+02:00</time>
      </trkpt>
      <trkpt lat="44.97283" lon="5.82514">
        <ele>1564</ele>
        <time>2020-08-02T09:21:36+02:00</time>
      </trkpt>
      <trkpt lat="44.97278" lon="5.82526">
        <ele>1564</ele>
        <time>2020-08-02T09:21:36+02:00</time>
      </trkpt>
      <trkpt lat="44.97273" lon="5.82539">
        <ele>1562</ele>
        <time>2020-08-02T09:21:36+02:00</time>
      </trkpt>
      <trkpt lat="44.97267" lon="5.82548">
        <ele>1562</ele>
        <time>2020-08-02T09:21:36+02:00</time>
      </trkpt>
      <trkpt lat="44.97258" lon="5.82554">
        <ele>1559</ele>
        <time>2020-08-02T09:23:44+02:00</time>
      </trkpt>
      <trkpt lat="44.97254" lon="5.82565">
        <ele>1557</ele>
        <time>2020-08-02T09:23:44+02:00</time>
      </trkpt>
      <trkpt lat="44.97249" lon="5.82577">
        <ele>1556</ele>
        <time>2020-08-02T09:23:44+02:00</time>
      </trkpt>
      <trkpt lat="44.97245" lon="5.82588">
        <ele>1556</ele>
        <time>2020-08-02T09:23:44+02:00</time>
      </trkpt>
      <trkpt lat="44.97241" lon="5.82601">
        <ele>1555</ele>
        <time>2020-08-02T09:23:44+02:00</time>
      </trkpt>
      <trkpt lat="44.97238" lon="5.82613">
        <ele>1555</ele>
        <time>2020-08-02T09:23:44+02:00</time>
      </trkpt>
      <trkpt lat="44.97236" lon="5.82627">
        <ele>1554</ele>
        <time>2020-08-02T09:23:44+02:00</time>
      </trkpt>
      <trkpt lat="44.97235" lon="5.82639">
        <ele>1555</ele>
        <time>2020-08-02T09:23:44+02:00</time>
      </trkpt>
      <trkpt lat="44.97234" lon="5.82652">
        <ele>1555</ele>
        <time>2020-08-02T09:23:44+02:00</time>
      </trkpt>
      <trkpt lat="44.97233" lon="5.82666">
        <ele>1557</ele>
        <time>2020-08-02T09:23:44+02:00</time>
      </trkpt>
      <trkpt lat="44.97231" lon="5.82679">
        <ele>1558</ele>
        <time>2020-08-02T09:23:44+02:00</time>
      </trkpt>
      <trkpt lat="44.9723" lon="5.82692">
        <ele>1559</ele>
        <time>2020-08-02T09:23:44+02:00</time>
      </trkpt>
      <trkpt lat="44.9723" lon="5.82704">
        <ele>1560</ele>
        <time>2020-08-02T09:23:44+02:00</time>
      </trkpt>
      <trkpt lat="44.9723" lon="5.82717">
        <ele>1563</ele>
        <time>2020-08-02T09:25:52+02:00</time>
      </trkpt>
      <trkpt lat="44.97231" lon="5.8273">
        <ele>1566</ele>
        <time>2020-08-02T09:25:52+02:00</time>
      </trkpt>
      <trkpt lat="44.97235" lon="5.82742">
        <ele>1568</ele>
        <time>2020-08-02T09:25:52+02:00</time>
      </trkpt>
      <trkpt lat="44.97239" lon="5.82754">
        <ele>1570</ele>
        <time>2020-08-02T09:25:52+02:00</time>
      </trkpt>
      <trkpt lat="44.97242" lon="5.82765">
        <ele>1572</ele>
        <time>2020-08-02T09:25:52+02:00</time>
      </trkpt>
      <trkpt lat="44.97248" lon="5.82776">
        <ele>1576</ele>
        <time>2020-08-02T09:25:52+02:00</time>
      </trkpt>
      <trkpt lat="44.97255" lon="5.82784">
        <ele>1579</ele>
        <time>2020-08-02T09:25:52+02:00</time>
      </trkpt>
      <trkpt lat="44.97264" lon="5.82789">
        <ele>1581</ele>
        <time>2020-08-02T09:25:52+02:00</time>
      </trkpt>
      <trkpt lat="44.97273" lon="5.82794">
        <ele>1584</ele>
        <time>2020-08-02T09:25:52+02:00</time>
      </trkpt>
      <trkpt lat="44.9728" lon="5.82801">
        <ele>1584</ele>
        <time>2020-08-02T09:25:52+02:00</time>
      </trkpt>
      <trkpt lat="44.97288" lon="5.82808">
        <ele>1586</ele>
        <time>2020-08-02T09:28:00+02:00</time>
      </trkpt>
      <trkpt lat="44.97295" lon="5.82816">
        <ele>1589</ele>
        <time>2020-08-02T09:28:00+02:00</time>
      </trkpt>
      <trkpt lat="44.97302" lon="5.82826">
        <ele>1594</ele>
        <time>2020-08-02T09:28:00+02:00</time>
      </trkpt>
      <trkpt lat="44.97308" lon="5.82836">
        <ele>1597</ele>
        <time>2020-08-02T09:28:00+02:00</time>
      </trkpt>
      <trkpt lat="44.97317" lon="5.82844">
        <ele>1603</ele>
        <time>2020-08-02T09:28:00+02:00</time>
      </trkpt>
      <trkpt lat="44.97323" lon="5.82854">
        <ele>1606</ele>
        <time>2020-08-02T09:28:00+02:00</time>
      </trkpt>
      <trkpt lat="44.97332" lon="5.8286">
        <ele>1606</ele>
        <time>2020-08-02T09:28:00+02:00</time>
      </trkpt>
      <trkpt lat="44.97341" lon="5.82864">
        <ele>1612</ele>
        <time>2020-08-02T09:28:00+02:00</time>
      </trkpt>
      <trkpt lat="44.97349" lon="5.82872">
        <ele>1613</ele>
        <time>2020-08-02T09:30:08+02:00</time>
      </trkpt>
      <trkpt lat="44.97355" lon="5.82881">
        <ele>1612</ele>
        <time>2020-08-02T09:30:08+02:00</time>
      </trkpt>
      <trkpt lat="44.97364" lon="5.82887">
        <ele>1616</ele>
        <time>2020-08-02T09:30:08+02:00</time>
      </trkpt>
      <trkpt lat="44.97371" lon="5.82896">
        <ele>1617</ele>
        <time>2020-08-02T09:30:08+02:00</time>
      </trkpt>
      <trkpt lat="44.97379" lon="5.82905">
        <ele>1616</ele>
        <time>2020-08-02T09:30:08+02:00</time>
      </trkpt>
      <trkpt lat="44.97385" lon="5.82914">
        <ele>1618</ele>
        <time>2020-08-02T09:30:08+02:00</time>
      </trkpt>
      <trkpt lat="44.97376" lon="5.82915">
        <ele>1629</ele>
        <time>2020-08-02T09:30:08+02:00</time>
      </trkpt>
      <trkpt lat="44.97367" lon="5.8291">
        <ele>1634</ele>
        <time>2020-08-02T09:30:08+02:00</time>
      </trkpt>
      <trkpt lat="44.97358" lon="5.82908">
        <ele>1635</ele>
        <time>2020-08-02T09:30:08+02:00</time>
      </trkpt>
      <trkpt lat="44.97348" lon="5.82908">
        <ele>1634</ele>
        <time>2020-08-02T09:32:16+02:00</time>
      </trkpt>
      <trkpt lat="44.97339" lon="5.82905">
        <ele>1637</ele>
        <time>2020-08-02T09:32:16+02:00</time>
      </trkpt>
      <trkpt lat="44.9733" lon="5.82905">
        <ele>1638</ele>
        <time>2020-08-02T09:32:16+02:00</time>
      </trkpt>
      <trkpt lat="44.97321" lon="5.82905">
        <ele>1637</ele>
        <time>2020-08-02T09:32:16+02:00</time>
      </trkpt>
      <trkpt lat="44.97312" lon="5.82909">
        <ele>1637</ele>
        <time>2020-08-02T09:32:16+02:00</time>
      </trkpt>
      <trkpt lat="44.97318" lon="5.82919">
        <ele>1638</ele>
        <time>2020-08-02T09:32:16+02:00</time>
      </trkpt>
      <trkpt lat="44.97327" lon="5.82924">
        <ele>1641</ele>
        <time>2020-08-02T09:32:16+02:00</time>
      </trkpt>
      <trkpt lat="44.97336" lon="5.82927">
        <ele>1642</ele>
        <time>2020-08-02T09:32:16+02:00</time>
      </trkpt>
      <trkpt lat="44.97343" lon="5.82933">
        <ele>1645</ele>
        <time>2020-08-02T09:32:16+02:00</time>
      </trkpt>
      <trkpt lat="44.97352" lon="5.82939">
        <ele>1648</ele>
        <time>2020-08-02T09:32:16+02:00</time>
      </trkpt>
      <trkpt lat="44.97361" lon="5.82944">
        <ele>1651</ele>
        <time>2020-08-02T09:32:16+02:00</time>
      </trkpt>
      <trkpt lat="44.97368" lon="5.82952">
        <ele>1653</ele>
        <time>2020-08-02T09:34:24+02:00</time>
      </trkpt>
      <trkpt lat="44.97375" lon="5.82961">
        <ele>1653</ele>
        <time>2020-08-02T09:34:24+02:00</time>
      </trkpt>
      <trkpt lat="44.97381" lon="5.8297">
        <ele>1653</ele>
        <time>2020-08-02T09:34:24+02:00</time>
      </trkpt>
      <trkpt lat="44.97389" lon="5.82981">
        <ele>1654</ele>
        <time>2020-08-02T09:34:24+02:00</time>
      </trkpt>
      <trkpt lat="44.97392" lon="5.82993">
        <ele>1656</ele>
        <time>2020-08-02T09:34:24+02:00</time>
      </trkpt>
      <trkpt lat="44.97394" lon="5.83006">
        <ele>1657</ele>
        <time>2020-08-02T09:34:24+02:00</time>
      </trkpt>
      <trkpt lat="44.97396" lon="5.8302">
        <ele>1659</ele>
        <time>2020-08-02T09:34:24+02:00</time>
      </trkpt>
      <trkpt lat="44.97402" lon="5.8303">
        <ele>1658</ele>
        <time>2020-08-02T09:34:24+02:00</time>
      </trkpt>
      <trkpt lat="44.97405" lon="5.83042">
        <ele>1660</ele>
        <time>2020-08-02T09:34:24+02:00</time>
      </trkpt>
      <trkpt lat="44.97407" lon="5.83055">
        <ele>1661</ele>
        <time>2020-08-02T09:34:24+02:00</time>
      </trkpt>
      <trkpt lat="44.9741" lon="5.83069">
        <ele>1660</ele>
        <time>2020-08-02T09:34:24+02:00</time>
      </trkpt>
      <trkpt lat="44.97414" lon="5.8308">
        <ele>1659</ele>
        <time>2020-08-02T09:34:24+02:00</time>
      </trkpt>
      <trkpt lat="44.97417" lon="5.83093">
        <ele>1661</ele>
        <time>2020-08-02T09:36:32+02:00</time>
      </trkpt>
      <trkpt lat="44.9742" lon="5.83105">
        <ele>1662</ele>
        <time>2020-08-02T09:36:32+02:00</time>
      </trkpt>
      <trkpt lat="44.97421" lon="5.83117">
        <ele>1663</ele>
        <time>2020-08-02T09:36:32+02:00</time>
      </trkpt>
      <trkpt lat="44.97425" lon="5.83131">
        <ele>1663</ele>
        <time>2020-08-02T09:36:32+02:00</time>
      </trkpt>
      <trkpt lat="44.97426" lon="5.83144">
        <ele>1663</ele>
        <time>2020-08-02T09:36:32+02:00</time>
      </trkpt>
      <trkpt lat="44.97427" lon="5.83157">
        <ele>1666</ele>
        <time>2020-08-02T09:36:32+02:00</time>
      </trkpt>
      <trkpt lat="44.9743" lon="5.8317">
        <ele>1665</ele>
        <time>2020-08-02T09:36:32+02:00</time>
      </trkpt>
      <trkpt lat="44.97433" lon="5.83183">
        <ele>1667</ele>
        <time>2020-08-02T09:36:32+02:00</time>
      </trkpt>
      <trkpt lat="44.97435" lon="5.83196">
        <ele>1668</ele>
        <time>2020-08-02T09:36:32+02:00</time>
      </trkpt>
      <trkpt lat="44.97437" lon="5.83208">
        <ele>1669</ele>
        <time>2020-08-02T09:36:32+02:00</time>
      </trkpt>
      <trkpt lat="44.97437" lon="5.83221">
        <ele>1669</ele>
        <time>2020-08-02T09:36:32+02:00</time>
      </trkpt>
      <trkpt lat="44.97439" lon="5.83234">
        <ele>1672</ele>
        <time>2020-08-02T09:36:32+02:00</time>
      </trkpt>
      <trkpt lat="44.97443" lon="5.83245">
        <ele>1675</ele>
        <time>2020-08-02T09:38:40+02:00</time>
      </trkpt>
      <trkpt lat="44.97446" lon="5.83258">
        <ele>1678</ele>
        <time>2020-08-02T09:38:40+02:00</time>
      </trkpt>
      <trkpt lat="44.97451" lon="5.83269">
        <ele>1679</ele>
        <time>2020-08-02T09:38:40+02:00</time>
      </trkpt>
      <trkpt lat="44.97455" lon="5.83281">
        <ele>1682</ele>
        <time>2020-08-02T09:38:40+02:00</time>
      </trkpt>
      <trkpt lat="44.97461" lon="5.83293">
        <ele>1685</ele>
        <time>2020-08-02T09:38:40+02:00</time>
      </trkpt>
      <trkpt lat="44.97464" lon="5.83305">
        <ele>1686</ele>
        <time>2020-08-02T09:38:40+02:00</time>
      </trkpt>
      <trkpt lat="44.97468" lon="5.83317">
        <ele>1689</ele>
        <time>2020-08-02T09:38:40+02:00</time>
      </trkpt>
      <trkpt lat="44.97472" lon="5.83328">
        <ele>1690</ele>
        <time>2020-08-02T09:38:40+02:00</time>
      </trkpt>
      <trkpt lat="44.97476" lon="5.8334">
        <ele>1689</ele>
        <time>2020-08-02T09:38:40+02:00</time>
      </trkpt>
      <trkpt lat="44.97479" lon="5.83352">
        <ele>1695</ele>
        <time>2020-08-02T09:38:40+02:00</time>
      </trkpt>
      <trkpt lat="44.97482" lon="5.83365">
        <ele>1694</ele>
        <time>2020-08-02T09:38:40+02:00</time>
      </trkpt>
      <trkpt lat="44.97487" lon="5.83377">
        <ele>1695</ele>
        <time>2020-08-02T09:40:48+02:00</time>
      </trkpt>
      <trkpt lat="44.9749" lon="5.83389">
        <ele>1696</ele>
        <time>2020-08-02T09:40:48+02:00</time>
      </trkpt>
      <trkpt lat="44.97495" lon="5.834">
        <ele>1697</ele>
        <time>2020-08-02T09:40:48+02:00</time>
      </trkpt>
      <trkpt lat="44.97498" lon="5.83412">
        <ele>1699</ele>
        <time>2020-08-02T09:40:48+02:00</time>
      </trkpt>
      <trkpt lat="44.97502" lon="5.83424">
        <ele>1700</ele>
        <time>2020-08-02T09:40:48+02:00</time>
      </trkpt>
      <trkpt lat="44.97507" lon="5.83436">
        <ele>1701</ele>
        <time>2020-08-02T09:40:48+02:00</time>
      </trkpt>
      <trkpt lat="44.97511" lon="5.83447">
        <ele>1703</ele>
        <time>2020-08-02T09:40:48+02:00</time>
      </trkpt>
      <trkpt lat="44.97516" lon="5.8346">
        <ele>1706</ele>
        <time>2020-08-02T09:40:48+02:00</time>
      </trkpt>
      <trkpt lat="44.97521" lon="5.83471">
        <ele>1707</ele>
        <time>2020-08-02T09:40:48+02:00</time>
      </trkpt>
      <trkpt lat="44.97526" lon="5.83483">
        <ele>1708</ele>
        <time>2020-08-02T09:40:48+02:00</time>
      </trkpt>
      <trkpt lat="44.97527" lon="5.83495">
        <ele>1710</ele>
        <time>2020-08-02T09:42:56+02:00</time>
      </trkpt>
      <trkpt lat="44.97532" lon="5.83508">
        <ele>1713</ele>
        <time>2020-08-02T09:42:56+02:00</time>
      </trkpt>
      <trkpt lat="44.97534" lon="5.8352">
        <ele>1716</ele>
        <time>2020-08-02T09:42:56+02:00</time>
      </trkpt>
      <trkpt lat="44.97538" lon="5.83533">
        <ele>1717</ele>
        <time>2020-08-02T09:42:56+02:00</time>
      </trkpt>
      <trkpt lat="44.97541" lon="5.83545">
        <ele>1720</ele>
        <time>2020-08-02T09:42:56+02:00</time>
      </trkpt>
      <trkpt lat="44.97541" lon="5.83559">
        <ele>1720</ele>
        <time>2020-08-02T09:42:56+02:00</time>
      </trkpt>
      <trkpt lat="44.97542" lon="5.83571">
        <ele>1721</ele>
        <time>2020-08-02T09:42:56+02:00</time>
      </trkpt>
      <trkpt lat="44.97545" lon="5.83584">
        <ele>1725</ele>
        <time>2020-08-02T09:42:56+02:00</time>
      </trkpt>
      <trkpt lat="44.97548" lon="5.83597">
        <ele>1727</ele>
        <time>2020-08-02T09:42:56+02:00</time>
      </trkpt>
      <trkpt lat="44.97552" lon="5.83609">
        <ele>1728</ele>
        <time>2020-08-02T09:42:56+02:00</time>
      </trkpt>
      <trkpt lat="44.97553" lon="5.83623">
        <ele>1729</ele>
        <time>2020-08-02T09:45:04+02:00</time>
      </trkpt>
      <trkpt lat="44.9755" lon="5.83636">
        <ele>1732</ele>
        <time>2020-08-02T09:45:04+02:00</time>
      </trkpt>
      <trkpt lat="44.97546" lon="5.83648">
        <ele>1732</ele>
        <time>2020-08-02T09:45:04+02:00</time>
      </trkpt>
      <trkpt lat="44.97542" lon="5.8366">
        <ele>1731</ele>
        <time>2020-08-02T09:45:04+02:00</time>
      </trkpt>
      <trkpt lat="44.97537" lon="5.83671">
        <ele>1733</ele>
        <time>2020-08-02T09:45:04+02:00</time>
      </trkpt>
      <trkpt lat="44.97533" lon="5.83682">
        <ele>1734</ele>
        <time>2020-08-02T09:45:04+02:00</time>
      </trkpt>
      <trkpt lat="44.97533" lon="5.83695">
        <ele>1738</ele>
        <time>2020-08-02T09:45:04+02:00</time>
      </trkpt>
      <trkpt lat="44.97534" lon="5.83708">
        <ele>1740</ele>
        <time>2020-08-02T09:45:04+02:00</time>
      </trkpt>
      <trkpt lat="44.97538" lon="5.83723">
        <ele>1742</ele>
        <time>2020-08-02T09:45:04+02:00</time>
      </trkpt>
      <trkpt lat="44.9754" lon="5.83735">
        <ele>1744</ele>
        <time>2020-08-02T09:45:04+02:00</time>
      </trkpt>
      <trkpt lat="44.97543" lon="5.83747">
        <ele>1747</ele>
        <time>2020-08-02T09:47:12+02:00</time>
      </trkpt>
      <trkpt lat="44.97547" lon="5.8376">
        <ele>1749</ele>
        <time>2020-08-02T09:47:12+02:00</time>
      </trkpt>
      <trkpt lat="44.97549" lon="5.83773">
        <ele>1750</ele>
        <time>2020-08-02T09:47:12+02:00</time>
      </trkpt>
      <trkpt lat="44.97553" lon="5.83786">
        <ele>1752</ele>
        <time>2020-08-02T09:47:12+02:00</time>
      </trkpt>
      <trkpt lat="44.97558" lon="5.83797">
        <ele>1752</ele>
        <time>2020-08-02T09:47:12+02:00</time>
      </trkpt>
      <trkpt lat="44.97564" lon="5.83807">
        <ele>1751</ele>
        <time>2020-08-02T09:47:12+02:00</time>
      </trkpt>
      <trkpt lat="44.97569" lon="5.83817">
        <ele>1751</ele>
        <time>2020-08-02T09:47:12+02:00</time>
      </trkpt>
      <trkpt lat="44.97574" lon="5.83829">
        <ele>1752</ele>
        <time>2020-08-02T09:47:12+02:00</time>
      </trkpt>
      <trkpt lat="44.97579" lon="5.83839">
        <ele>1755</ele>
        <time>2020-08-02T09:47:12+02:00</time>
      </trkpt>
      <trkpt lat="44.97586" lon="5.83848">
        <ele>1757</ele>
        <time>2020-08-02T09:47:12+02:00</time>
      </trkpt>
      <trkpt lat="44.97593" lon="5.83856">
        <ele>1761</ele>
        <time>2020-08-02T09:47:12+02:00</time>
      </trkpt>
      <trkpt lat="44.97601" lon="5.83864">
        <ele>1761</ele>
        <time>2020-08-02T09:49:20+02:00</time>
      </trkpt>
      <trkpt lat="44.97609" lon="5.83871">
        <ele>1764</ele>
        <time>2020-08-02T09:49:20+02:00</time>
      </trkpt>
      <trkpt lat="44.97615" lon="5.83881">
        <ele>1766</ele>
        <time>2020-08-02T09:49:20+02:00</time>
      </trkpt>
      <trkpt lat="44.97622" lon="5.83891">
        <ele>1767</ele>
        <time>2020-08-02T09:49:20+02:00</time>
      </trkpt>
      <trkpt lat="44.97629" lon="5.83898">
        <ele>1770</ele>
        <time>2020-08-02T09:49:20+02:00</time>
      </trkpt>
      <trkpt lat="44.97637" lon="5.83905">
        <ele>1771</ele>
        <time>2020-08-02T09:49:20+02:00</time>
      </trkpt>
      <trkpt lat="44.97642" lon="5.83917">
        <ele>1775</ele>
        <time>2020-08-02T09:49:20+02:00</time>
      </trkpt>
      <trkpt lat="44.9765" lon="5.83924">
        <ele>1777</ele>
        <time>2020-08-02T09:49:20+02:00</time>
      </trkpt>
      <trkpt lat="44.97659" lon="5.83928">
        <ele>1780</ele>
        <time>2020-08-02T09:49:20+02:00</time>
      </trkpt>
      <trkpt lat="44.97668" lon="5.83934">
        <ele>1782</ele>
        <time>2020-08-02T09:51:28+02:00</time>
      </trkpt>
      <trkpt lat="44.97674" lon="5.83942">
        <ele>1785</ele>
        <time>2020-08-02T09:51:28+02:00</time>
      </trkpt>
      <trkpt lat="44.97681" lon="5.83951">
        <ele>1787</ele>
        <time>2020-08-02T09:51:28+02:00</time>
      </trkpt>
      <trkpt lat="44.97688" lon="5.8396">
        <ele>1790</ele>
        <time>2020-08-02T09:51:28+02:00</time>
      </trkpt>
      <trkpt lat="44.97697" lon="5.83962">
        <ele>1791</ele>
        <time>2020-08-02T09:51:28+02:00</time>
      </trkpt>
      <trkpt lat="44.97706" lon="5.83968">
        <ele>1793</ele>
        <time>2020-08-02T09:51:28+02:00</time>
      </trkpt>
      <trkpt lat="44.97713" lon="5.83976">
        <ele>1797</ele>
        <time>2020-08-02T09:51:28+02:00</time>
      </trkpt>
      <trkpt lat="44.97719" lon="5.83986">
        <ele>1798</ele>
        <time>2020-08-02T09:51:28+02:00</time>
      </trkpt>
      <trkpt lat="44.97725" lon="5.83997">
        <ele>1801</ele>
        <time>2020-08-02T09:53:36+02:00</time>
      </trkpt>
      <trkpt lat="44.97732" lon="5.84006">
        <ele>1804</ele>
        <time>2020-08-02T09:53:36+02:00</time>
      </trkpt>
      <trkpt lat="44.97739" lon="5.84017">
        <ele>1808</ele>
        <time>2020-08-02T09:53:36+02:00</time>
      </trkpt>
      <trkpt lat="44.97746" lon="5.84027">
        <ele>1808</ele>
        <time>2020-08-02T09:53:36+02:00</time>
      </trkpt>
      <trkpt lat="44.97754" lon="5.84034">
        <ele>1810</ele>
        <time>2020-08-02T09:53:36+02:00</time>
      </trkpt>
      <trkpt lat="44.97763" lon="5.84039">
        <ele>1813</ele>
        <time>2020-08-02T09:53:36+02:00</time>
      </trkpt>
      <trkpt lat="44.97771" lon="5.84045">
        <ele>1815</ele>
        <time>2020-08-02T09:53:36+02:00</time>
      </trkpt>
      <trkpt lat="44.97777" lon="5.84055">
        <ele>1816</ele>
        <time>2020-08-02T09:53:36+02:00</time>
      </trkpt>
      <trkpt lat="44.97784" lon="5.84062">
        <ele>1819</ele>
        <time>2020-08-02T09:55:44+02:00</time>
      </trkpt>
      <trkpt lat="44.97792" lon="5.84069">
        <ele>1821</ele>
        <time>2020-08-02T09:55:44+02:00</time>
      </trkpt>
      <trkpt lat="44.97801" lon="5.84073">
        <ele>1823</ele>
        <time>2020-08-02T09:55:44+02:00</time>
      </trkpt>
      <trkpt lat="44.97809" lon="5.84081">
        <ele>1825</ele>
        <time>2020-08-02T09:55:44+02:00</time>
      </trkpt>
      <trkpt lat="44.97817" lon="5.84088">
        <ele>1828</ele>
        <time>2020-08-02T09:55:44+02:00</time>
      </trkpt>
      <trkpt lat="44.97826" lon="5.84091">
        <ele>1828</ele>
        <time>2020-08-02T09:55:44+02:00</time>
      </trkpt>
      <trkpt lat="44.97836" lon="5.84095">
        <ele>1830</ele>
        <time>2020-08-02T09:55:44+02:00</time>
      </trkpt>
      <trkpt lat="44.97845" lon="5.84099">
        <ele>1832</ele>
        <time>2020-08-02T09:55:44+02:00</time>
      </trkpt>
      <trkpt lat="44.97854" lon="5.84102">
        <ele>1833</ele>
        <time>2020-08-02T09:55:44+02:00</time>
      </trkpt>
      <trkpt lat="44.97863" lon="5.84108">
        <ele>1836</ele>
        <time>2020-08-02T09:57:52+02:00</time>
      </trkpt>
      <trkpt lat="44.97872" lon="5.84112">
        <ele>1837</ele>
        <time>2020-08-02T09:57:52+02:00</time>
      </trkpt>
      <trkpt lat="44.97881" lon="5.84116">
        <ele>1841</ele>
        <time>2020-08-02T09:57:52+02:00</time>
      </trkpt>
      <trkpt lat="44.9789" lon="5.84118">
        <ele>1842</ele>
        <time>2020-08-02T09:57:52+02:00</time>
      </trkpt>
      <trkpt lat="44.97898" lon="5.84125">
        <ele>1844</ele>
        <time>2020-08-02T09:57:52+02:00</time>
      </trkpt>
      <trkpt lat="44.97905" lon="5.84133">
        <ele>1846</ele>
        <time>2020-08-02T09:57:52+02:00</time>
      </trkpt>
      <trkpt lat="44.97913" lon="5.84139">
        <ele>1848</ele>
        <time>2020-08-02T09:57:52+02:00</time>
      </trkpt>
      <trkpt lat="44.97921" lon="5.84146">
        <ele>1851</ele>
        <time>2020-08-02T09:57:52+02:00</time>
      </trkpt>
      <trkpt lat="44.97929" lon="5.84153">
        <ele>1852</ele>
        <time>2020-08-02T09:57:52+02:00</time>
      </trkpt>
      <trkpt lat="44.97938" lon="5.84159">
        <ele>1854</ele>
        <time>2020-08-02T10:00:00+02:00</time>
      </trkpt>
      <trkpt lat="44.97947" lon="5.84157">
        <ele>1855</ele>
        <time>2020-08-02T10:00:00+02:00</time>
      </trkpt>
      <trkpt lat="44.97951" lon="5.84169">
        <ele>1858</ele>
        <time>2020-08-02T10:00:00+02:00</time>
      </trkpt>
      <trkpt lat="44.9796" lon="5.84174">
        <ele>1860</ele>
        <time>2020-08-02T10:00:00+02:00</time>
      </trkpt>
      <trkpt lat="44.97969" lon="5.8418">
        <ele>1860</ele>
        <time>2020-08-02T10:00:00+02:00</time>
      </trkpt>
      <trkpt lat="44.97978" lon="5.84184">
        <ele>1862</ele>
        <time>2020-08-02T10:00:00+02:00</time>
      </trkpt>
      <trkpt lat="44.97987" lon="5.84185">
        <ele>1866</ele>
        <time>2020-08-02T10:00:00+02:00</time>
      </trkpt>
      <trkpt lat="44.97995" lon="5.84179">
        <ele>1867</ele>
        <time>2020-08-02T10:00:00+02:00</time>
      </trkpt>
      <trkpt lat="44.98004" lon="5.84173">
        <ele>1869</ele>
        <time>2020-08-02T10:00:00+02:00</time>
      </trkpt>
      <trkpt lat="44.98014" lon="5.84174">
        <ele>1871</ele>
        <time>2020-08-02T10:02:08+02:00</time>
      </trkpt>
      <trkpt lat="44.98022" lon="5.84181">
        <ele>1871</ele>
        <time>2020-08-02T10:02:08+02:00</time>
      </trkpt>
      <trkpt lat="44.98031" lon="5.84185">
        <ele>1873</ele>
        <time>2020-08-02T10:02:08+02:00</time>
      </trkpt>
      <trkpt lat="44.98038" lon="5.84192">
        <ele>1876</ele>
        <time>2020-08-02T10:02:08+02:00</time>
      </trkpt>
      <trkpt lat="44.98047" lon="5.84198">
        <ele>1878</ele>
        <time>2020-08-02T10:02:08+02:00</time>
      </trkpt>
      <trkpt lat="44.98057" lon="5.84199">
        <ele>1881</ele>
        <time>2020-08-02T10:02:08+02:00</time>
      </trkpt>
      <trkpt lat="44.98065" lon="5.84205">
        <ele>1882</ele>
        <time>2020-08-02T10:02:08+02:00</time>
      </trkpt>
      <trkpt lat="44.98074" lon="5.84207">
        <ele>1884</ele>
        <time>2020-08-02T10:02:08+02:00</time>
      </trkpt>
      <trkpt lat="44.98079" lon="5.84218">
        <ele>1886</ele>
        <time>2020-08-02T10:04:16+02:00</time>
      </trkpt>
      <trkpt lat="44.98086" lon="5.84228">
        <ele>1888</ele>
        <time>2020-08-02T10:04:16+02:00</time>
      </trkpt>
      <trkpt lat="44.98095" lon="5.84231">
        <ele>1891</ele>
        <time>2020-08-02T10:04:16+02:00</time>
      </trkpt>
      <trkpt lat="44.98105" lon="5.84232">
        <ele>1895</ele>
        <time>2020-08-02T10:04:16+02:00</time>
      </trkpt>
      <trkpt lat="44.9811" lon="5.84243">
        <ele>1898</ele>
        <time>2020-08-02T10:04:16+02:00</time>
      </trkpt>
      <trkpt lat="44.98113" lon="5.84258">
        <ele>1899</ele>
        <time>2020-08-02T10:04:16+02:00</time>
      </trkpt>
      <trkpt lat="44.98118" lon="5.84271">
        <ele>1903</ele>
        <time>2020-08-02T10:04:16+02:00</time>
      </trkpt>
      <trkpt lat="44.98127" lon="5.84271">
        <ele>1907</ele>
        <time>2020-08-02T10:06:24+02:00</time>
      </trkpt>
      <trkpt lat="44.98132" lon="5.84283">
        <ele>1911</ele>
        <time>2020-08-02T10:06:24+02:00</time>
      </trkpt>
      <trkpt lat="44.98129" lon="5.84295">
        <ele>1913</ele>
        <time>2020-08-02T10:06:24+02:00</time>
      </trkpt>
      <trkpt lat="44.98126" lon="5.84308">
        <ele>1914</ele>
        <time>2020-08-02T10:06:24+02:00</time>
      </trkpt>
      <trkpt lat="44.98121" lon="5.84319">
        <ele>1917</ele>
        <time>2020-08-02T10:06:24+02:00</time>
      </trkpt>
      <trkpt lat="44.98117" lon="5.84331">
        <ele>1918</ele>
        <time>2020-08-02T10:06:24+02:00</time>
      </trkpt>
      <trkpt lat="44.98119" lon="5.84344">
        <ele>1921</ele>
        <time>2020-08-02T10:06:24+02:00</time>
      </trkpt>
      <trkpt lat="44.98128" lon="5.84349">
        <ele>1925</ele>
        <time>2020-08-02T10:08:32+02:00</time>
      </trkpt>
      <trkpt lat="44.98135" lon="5.84359">
        <ele>1928</ele>
        <time>2020-08-02T10:08:32+02:00</time>
      </trkpt>
      <trkpt lat="44.98144" lon="5.84357">
        <ele>1932</ele>
        <time>2020-08-02T10:08:32+02:00</time>
      </trkpt>
      <trkpt lat="44.98153" lon="5.8436">
        <ele>1935</ele>
        <time>2020-08-02T10:08:32+02:00</time>
      </trkpt>
      <trkpt lat="44.98158" lon="5.84371">
        <ele>1937</ele>
        <time>2020-08-02T10:08:32+02:00</time>
      </trkpt>
      <trkpt lat="44.98167" lon="5.84372">
        <ele>1939</ele>
        <time>2020-08-02T10:10:40+02:00</time>
      </trkpt>
      <trkpt lat="44.98173" lon="5.84382">
        <ele>1942</ele>
        <time>2020-08-02T10:10:40+02:00</time>
      </trkpt>
      <trkpt lat="44.98181" lon="5.8439">
        <ele>1948</ele>
        <time>2020-08-02T10:10:40+02:00</time>
      </trkpt>
      <trkpt lat="44.98187" lon="5.844">
        <ele>1950</ele>
        <time>2020-08-02T10:10:40+02:00</time>
      </trkpt>
      <trkpt lat="44.98186" lon="5.84413">
        <ele>1951</ele>
        <time>2020-08-02T10:10:40+02:00</time>
      </trkpt>
      <trkpt lat="44.98186" lon="5.84426">
        <ele>1955</ele>
        <time>2020-08-02T10:10:40+02:00</time>
      </trkpt>
      <trkpt lat="44.98189" lon="5.84438">
        <ele>1959</ele>
        <time>2020-08-02T10:14:56+02:00</time>
      </trkpt>
      <trkpt lat="44.98194" lon="5.84448">
        <ele>1963</ele>
        <time>2020-08-02T10:14:56+02:00</time>
      </trkpt>
      <trkpt lat="44.98196" lon="5.84461">
        <ele>1966</ele>
        <time>2020-08-02T10:14:56+02:00</time>
      </trkpt>
      <trkpt lat="44.98201" lon="5.84472">
        <ele>1970</ele>
        <time>2020-08-02T10:14:56+02:00</time>
      </trkpt>
      <trkpt lat="44.98206" lon="5.84484">
        <ele>1970</ele>
        <time>2020-08-02T10:21:20+02:00</time>
      </trkpt>
      <trkpt lat="44.9821" lon="5.84496">
        <ele>1970</ele>
        <time>2020-08-02T10:21:20+02:00</time>
      </trkpt>
      <trkpt lat="44.98211" lon="5.84509">
        <ele>1971</ele>
        <time>2020-08-02T10:21:20+02:00</time>
      </trkpt>
      <trkpt lat="44.98212" lon="5.84521">
        <ele>1971</ele>
        <time>2020-08-02T10:21:20+02:00</time>
      </trkpt>
      <trkpt lat="44.98217" lon="5.84533">
        <ele>1972</ele>
        <time>2020-08-02T10:21:20+02:00</time>
      </trkpt>
      <trkpt lat="44.98221" lon="5.84545">
        <ele>1971</ele>
        <time>2020-08-02T10:21:20+02:00</time>
      </trkpt>
      <trkpt lat="44.98222" lon="5.84559">
        <ele>1970</ele>
        <time>2020-08-02T10:21:20+02:00</time>
      </trkpt>
      <trkpt lat="44.98227" lon="5.8457">
        <ele>1970</ele>
        <time>2020-08-02T10:23:28+02:00</time>
      </trkpt>
      <trkpt lat="44.98229" lon="5.84584">
        <ele>1969</ele>
        <time>2020-08-02T10:23:28+02:00</time>
      </trkpt>
      <trkpt lat="44.9823" lon="5.84597">
        <ele>1970</ele>
        <time>2020-08-02T10:23:28+02:00</time>
      </trkpt>
      <trkpt lat="44.98229" lon="5.84609">
        <ele>1970</ele>
        <time>2020-08-02T10:23:28+02:00</time>
      </trkpt>
      <trkpt lat="44.98231" lon="5.84622">
        <ele>1971</ele>
        <time>2020-08-02T10:23:28+02:00</time>
      </trkpt>
      <trkpt lat="44.98236" lon="5.84633">
        <ele>1973</ele>
        <time>2020-08-02T10:23:28+02:00</time>
      </trkpt>
      <trkpt lat="44.98243" lon="5.84643">
        <ele>1973</ele>
        <time>2020-08-02T10:23:28+02:00</time>
      </trkpt>
      <trkpt lat="44.98252" lon="5.84645">
        <ele>1977</ele>
        <time>2020-08-02T10:23:28+02:00</time>
      </trkpt>
      <trkpt lat="44.98261" lon="5.84643">
        <ele>1976</ele>
        <time>2020-08-02T10:23:28+02:00</time>
      </trkpt>
      <trkpt lat="44.98268" lon="5.84651">
        <ele>1980</ele>
        <time>2020-08-02T10:25:36+02:00</time>
      </trkpt>
      <trkpt lat="44.98277" lon="5.84651">
        <ele>1982</ele>
        <time>2020-08-02T10:25:36+02:00</time>
      </trkpt>
      <trkpt lat="44.98286" lon="5.84655">
        <ele>1987</ele>
        <time>2020-08-02T10:25:36+02:00</time>
      </trkpt>
      <trkpt lat="44.9829" lon="5.84667">
        <ele>1990</ele>
        <time>2020-08-02T10:25:36+02:00</time>
      </trkpt>
      <trkpt lat="44.9829" lon="5.84681">
        <ele>1994</ele>
        <time>2020-08-02T10:25:36+02:00</time>
      </trkpt>
      <trkpt lat="44.98294" lon="5.84692">
        <ele>1998</ele>
        <time>2020-08-02T10:25:36+02:00</time>
      </trkpt>
      <trkpt lat="44.98303" lon="5.84688">
        <ele>1996</ele>
        <time>2020-08-02T10:27:44+02:00</time>
      </trkpt>
      <trkpt lat="44.98312" lon="5.84692">
        <ele>1998</ele>
        <time>2020-08-02T10:27:44+02:00</time>
      </trkpt>
      <trkpt lat="44.98322" lon="5.84692">
        <ele>2004</ele>
        <time>2020-08-02T10:27:44+02:00</time>
      </trkpt>
      <trkpt lat="44.9833" lon="5.84699">
        <ele>2003</ele>
        <time>2020-08-02T10:27:44+02:00</time>
      </trkpt>
      <trkpt lat="44.98337" lon="5.84707">
        <ele>2006</ele>
        <time>2020-08-02T10:27:44+02:00</time>
      </trkpt>
      <trkpt lat="44.98345" lon="5.84715">
        <ele>2008</ele>
        <time>2020-08-02T10:27:44+02:00</time>
      </trkpt>
      <trkpt lat="44.98343" lon="5.84728">
        <ele>2010</ele>
        <time>2020-08-02T10:27:44+02:00</time>
      </trkpt>
      <trkpt lat="44.98344" lon="5.84741">
        <ele>2012</ele>
        <time>2020-08-02T10:29:52+02:00</time>
      </trkpt>
      <trkpt lat="44.98344" lon="5.84755">
        <ele>2014</ele>
        <time>2020-08-02T10:29:52+02:00</time>
      </trkpt>
      <trkpt lat="44.98344" lon="5.84769">
        <ele>2016</ele>
        <time>2020-08-02T10:29:52+02:00</time>
      </trkpt>
      <trkpt lat="44.9834" lon="5.8478">
        <ele>2017</ele>
        <time>2020-08-02T10:29:52+02:00</time>
      </trkpt>
      <trkpt lat="44.98333" lon="5.84789">
        <ele>2017</ele>
        <time>2020-08-02T10:29:52+02:00</time>
      </trkpt>
      <trkpt lat="44.98326" lon="5.84798">
        <ele>2017</ele>
        <time>2020-08-02T10:29:52+02:00</time>
      </trkpt>
      <trkpt lat="44.98318" lon="5.84803">
        <ele>2018</ele>
        <time>2020-08-02T10:29:52+02:00</time>
      </trkpt>
      <trkpt lat="44.98308" lon="5.84808">
        <ele>2019</ele>
        <time>2020-08-02T10:29:52+02:00</time>
      </trkpt>
      <trkpt lat="44.98299" lon="5.8481">
        <ele>2020</ele>
        <time>2020-08-02T10:29:52+02:00</time>
      </trkpt>
      <trkpt lat="44.9829" lon="5.84814">
        <ele>2021</ele>
        <time>2020-08-02T10:29:52+02:00</time>
      </trkpt>
      <trkpt lat="44.98281" lon="5.84816">
        <ele>2023</ele>
        <time>2020-08-02T10:32:00+02:00</time>
      </trkpt>
      <trkpt lat="44.98272" lon="5.84817">
        <ele>2025</ele>
        <time>2020-08-02T10:32:00+02:00</time>
      </trkpt>
      <trkpt lat="44.98263" lon="5.84822">
        <ele>2028</ele>
        <time>2020-08-02T10:32:00+02:00</time>
      </trkpt>
      <trkpt lat="44.98255" lon="5.8483">
        <ele>2031</ele>
        <time>2020-08-02T10:32:00+02:00</time>
      </trkpt>
      <trkpt lat="44.98247" lon="5.84836">
        <ele>2032</ele>
        <time>2020-08-02T10:32:00+02:00</time>
      </trkpt>
      <trkpt lat="44.98238" lon="5.84838">
        <ele>2034</ele>
        <time>2020-08-02T10:32:00+02:00</time>
      </trkpt>
      <trkpt lat="44.98228" lon="5.84839">
        <ele>2039</ele>
        <time>2020-08-02T10:32:00+02:00</time>
      </trkpt>
      <trkpt lat="44.98219" lon="5.84839">
        <ele>2043</ele>
        <time>2020-08-02T10:34:08+02:00</time>
      </trkpt>
      <trkpt lat="44.9821" lon="5.84842">
        <ele>2044</ele>
        <time>2020-08-02T10:34:08+02:00</time>
      </trkpt>
      <trkpt lat="44.98201" lon="5.84836">
        <ele>2047</ele>
        <time>2020-08-02T10:34:08+02:00</time>
      </trkpt>
      <trkpt lat="44.98193" lon="5.8483">
        <ele>2049</ele>
        <time>2020-08-02T10:34:08+02:00</time>
      </trkpt>
      <trkpt lat="44.98183" lon="5.84832">
        <ele>2050</ele>
        <time>2020-08-02T10:34:08+02:00</time>
      </trkpt>
      <trkpt lat="44.98175" lon="5.84828">
        <ele>2050</ele>
        <time>2020-08-02T10:34:08+02:00</time>
      </trkpt>
      <trkpt lat="44.98165" lon="5.8483">
        <ele>2051</ele>
        <time>2020-08-02T10:34:08+02:00</time>
      </trkpt>
      <trkpt lat="44.98156" lon="5.84831">
        <ele>2053</ele>
        <time>2020-08-02T10:36:16+02:00</time>
      </trkpt>
      <trkpt lat="44.98147" lon="5.84834">
        <ele>2055</ele>
        <time>2020-08-02T10:36:16+02:00</time>
      </trkpt>
      <trkpt lat="44.98138" lon="5.84832">
        <ele>2055</ele>
        <time>2020-08-02T10:36:16+02:00</time>
      </trkpt>
      <trkpt lat="44.98128" lon="5.84831">
        <ele>2056</ele>
        <time>2020-08-02T10:36:16+02:00</time>
      </trkpt>
      <trkpt lat="44.98118" lon="5.8483">
        <ele>2057</ele>
        <time>2020-08-02T10:36:16+02:00</time>
      </trkpt>
      <trkpt lat="44.98109" lon="5.84829">
        <ele>2057</ele>
        <time>2020-08-02T10:36:16+02:00</time>
      </trkpt>
      <trkpt lat="44.98099" lon="5.8483">
        <ele>2059</ele>
        <time>2020-08-02T10:36:16+02:00</time>
      </trkpt>
      <trkpt lat="44.98089" lon="5.84831">
        <ele>2058</ele>
        <time>2020-08-02T10:36:16+02:00</time>
      </trkpt>
      <trkpt lat="44.98081" lon="5.84833">
        <ele>2058</ele>
        <time>2020-08-02T10:36:16+02:00</time>
      </trkpt>
      <trkpt lat="44.98072" lon="5.84829">
        <ele>2061</ele>
        <time>2020-08-02T10:36:16+02:00</time>
      </trkpt>
      <trkpt lat="44.98062" lon="5.8483">
        <ele>2062</ele>
        <time>2020-08-02T10:38:24+02:00</time>
      </trkpt>
      <trkpt lat="44.98054" lon="5.84825">
        <ele>2064</ele>
        <time>2020-08-02T10:38:24+02:00</time>
      </trkpt>
      <trkpt lat="44.98044" lon="5.84824">
        <ele>2067</ele>
        <time>2020-08-02T10:38:24+02:00</time>
      </trkpt>
      <trkpt lat="44.98035" lon="5.8482">
        <ele>2069</ele>
        <time>2020-08-02T10:38:24+02:00</time>
      </trkpt>
      <trkpt lat="44.98026" lon="5.84822">
        <ele>2070</ele>
        <time>2020-08-02T10:38:24+02:00</time>
      </trkpt>
      <trkpt lat="44.98016" lon="5.8482">
        <ele>2069</ele>
        <time>2020-08-02T10:38:24+02:00</time>
      </trkpt>
      <trkpt lat="44.98007" lon="5.84817">
        <ele>2071</ele>
        <time>2020-08-02T10:38:24+02:00</time>
      </trkpt>
      <trkpt lat="44.97998" lon="5.84813">
        <ele>2073</ele>
        <time>2020-08-02T10:38:24+02:00</time>
      </trkpt>
      <trkpt lat="44.9799" lon="5.84811">
        <ele>2075</ele>
        <time>2020-08-02T10:38:24+02:00</time>
      </trkpt>
      <trkpt lat="44.9798" lon="5.84808">
        <ele>2077</ele>
        <time>2020-08-02T10:40:32+02:00</time>
      </trkpt>
      <trkpt lat="44.97971" lon="5.84811">
        <ele>2078</ele>
        <time>2020-08-02T10:40:32+02:00</time>
      </trkpt>
      <trkpt lat="44.97962" lon="5.84814">
        <ele>2078</ele>
        <time>2020-08-02T10:40:32+02:00</time>
      </trkpt>
      <trkpt lat="44.97953" lon="5.84813">
        <ele>2080</ele>
        <time>2020-08-02T10:40:32+02:00</time>
      </trkpt>
      <trkpt lat="44.97945" lon="5.84817">
        <ele>2082</ele>
        <time>2020-08-02T10:40:32+02:00</time>
      </trkpt>
      <trkpt lat="44.97935" lon="5.84818">
        <ele>2083</ele>
        <time>2020-08-02T10:40:32+02:00</time>
      </trkpt>
      <trkpt lat="44.97925" lon="5.84822">
        <ele>2086</ele>
        <time>2020-08-02T10:40:32+02:00</time>
      </trkpt>
      <trkpt lat="44.97916" lon="5.84822">
        <ele>2089</ele>
        <time>2020-08-02T10:40:32+02:00</time>
      </trkpt>
      <trkpt lat="44.97907" lon="5.84821">
        <ele>2093</ele>
        <time>2020-08-02T10:42:40+02:00</time>
      </trkpt>
      <trkpt lat="44.97897" lon="5.84822">
        <ele>2096</ele>
        <time>2020-08-02T10:42:40+02:00</time>
      </trkpt>
      <trkpt lat="44.97888" lon="5.84824">
        <ele>2099</ele>
        <time>2020-08-02T10:42:40+02:00</time>
      </trkpt>
      <trkpt lat="44.97878" lon="5.84826">
        <ele>2101</ele>
        <time>2020-08-02T10:42:40+02:00</time>
      </trkpt>
      <trkpt lat="44.9787" lon="5.84832">
        <ele>2101</ele>
        <time>2020-08-02T10:42:40+02:00</time>
      </trkpt>
      <trkpt lat="44.97862" lon="5.8484">
        <ele>2106</ele>
        <time>2020-08-02T10:42:40+02:00</time>
      </trkpt>
      <trkpt lat="44.97858" lon="5.84853">
        <ele>2108</ele>
        <time>2020-08-02T10:44:48+02:00</time>
      </trkpt>
      <trkpt lat="44.97851" lon="5.84862">
        <ele>2110</ele>
        <time>2020-08-02T10:44:48+02:00</time>
      </trkpt>
      <trkpt lat="44.97842" lon="5.84861">
        <ele>2112</ele>
        <time>2020-08-02T10:44:48+02:00</time>
      </trkpt>
      <trkpt lat="44.97835" lon="5.84869">
        <ele>2116</ele>
        <time>2020-08-02T10:44:48+02:00</time>
      </trkpt>
      <trkpt lat="44.97827" lon="5.84877">
        <ele>2124</ele>
        <time>2020-08-02T10:46:56+02:00</time>
      </trkpt>
      <trkpt lat="44.97818" lon="5.8488">
        <ele>2130</ele>
        <time>2020-08-02T10:46:56+02:00</time>
      </trkpt>
      <trkpt lat="44.97812" lon="5.8489">
        <ele>2133</ele>
        <time>2020-08-02T10:46:56+02:00</time>
      </trkpt>
      <trkpt lat="44.97807" lon="5.84901">
        <ele>2139</ele>
        <time>2020-08-02T10:49:04+02:00</time>
      </trkpt>
      <trkpt lat="44.97802" lon="5.84912">
        <ele>2144</ele>
        <time>2020-08-02T10:49:04+02:00</time>
      </trkpt>
      <trkpt lat="44.97795" lon="5.84921">
        <ele>2145</ele>
        <time>2020-08-02T10:49:04+02:00</time>
      </trkpt>
      <trkpt lat="44.97789" lon="5.84931">
        <ele>2150</ele>
        <time>2020-08-02T10:49:04+02:00</time>
      </trkpt>
      <trkpt lat="44.97782" lon="5.8494">
        <ele>2152</ele>
        <time>2020-08-02T10:49:04+02:00</time>
      </trkpt>
      <trkpt lat="44.97781" lon="5.84955">
        <ele>2155</ele>
        <time>2020-08-02T10:51:12+02:00</time>
      </trkpt>
      <trkpt lat="44.97782" lon="5.84968">
        <ele>2159</ele>
        <time>2020-08-02T10:59:44+02:00</time>
      </trkpt>
      <trkpt lat="44.97782" lon="5.84981">
        <ele>2161</ele>
        <time>2020-08-02T10:59:44+02:00</time>
      </trkpt>
      <trkpt lat="44.97787" lon="5.84993">
        <ele>2165</ele>
        <time>2020-08-02T10:59:44+02:00</time>
      </trkpt>
      <trkpt lat="44.97789" lon="5.85006">
        <ele>2168</ele>
        <time>2020-08-02T10:59:44+02:00</time>
      </trkpt>
      <trkpt lat="44.97796" lon="5.85015">
        <ele>2170</ele>
        <time>2020-08-02T11:01:52+02:00</time>
      </trkpt>
      <trkpt lat="44.97797" lon="5.85028">
        <ele>2173</ele>
        <time>2020-08-02T11:01:52+02:00</time>
      </trkpt>
      <trkpt lat="44.97792" lon="5.85039">
        <ele>2177</ele>
        <time>2020-08-02T11:01:52+02:00</time>
      </trkpt>
      <trkpt lat="44.97792" lon="5.85053">
        <ele>2182</ele>
        <time>2020-08-02T11:01:52+02:00</time>
      </trkpt>
      <trkpt lat="44.97788" lon="5.85065">
        <ele>2187</ele>
        <time>2020-08-02T11:04:00+02:00</time>
      </trkpt>
      <trkpt lat="44.97783" lon="5.85076">
        <ele>2193</ele>
        <time>2020-08-02T11:04:00+02:00</time>
      </trkpt>
      <trkpt lat="44.97787" lon="5.85088">
        <ele>2198</ele>
        <time>2020-08-02T11:04:00+02:00</time>
      </trkpt>
      <trkpt lat="44.97793" lon="5.85099">
        <ele>2204</ele>
        <time>2020-08-02T11:04:00+02:00</time>
      </trkpt>
      <trkpt lat="44.97797" lon="5.8511">
        <ele>2206</ele>
        <time>2020-08-02T11:06:08+02:00</time>
      </trkpt>
      <trkpt lat="44.978" lon="5.85122">
        <ele>2208</ele>
        <time>2020-08-02T11:06:08+02:00</time>
      </trkpt>
      <trkpt lat="44.97808" lon="5.85131">
        <ele>2212</ele>
        <time>2020-08-02T11:06:08+02:00</time>
      </trkpt>
      <trkpt lat="44.97815" lon="5.85139">
        <ele>2219</ele>
        <time>2020-08-02T11:06:08+02:00</time>
      </trkpt>
      <trkpt lat="44.97822" lon="5.85148">
        <ele>2224</ele>
        <time>2020-08-02T11:08:16+02:00</time>
      </trkpt>
      <trkpt lat="44.97829" lon="5.85154">
        <ele>2228</ele>
        <time>2020-08-02T11:08:16+02:00</time>
      </trkpt>
      <trkpt lat="44.97836" lon="5.85162">
        <ele>2232</ele>
        <time>2020-08-02T11:08:16+02:00</time>
      </trkpt>
      <trkpt lat="44.97845" lon="5.85164">
        <ele>2235</ele>
        <time>2020-08-02T11:08:16+02:00</time>
      </trkpt>
      <trkpt lat="44.97855" lon="5.85164">
        <ele>2236</ele>
        <time>2020-08-02T11:10:24+02:00</time>
      </trkpt>
      <trkpt lat="44.97864" lon="5.85168">
        <ele>2243</ele>
        <time>2020-08-02T11:10:24+02:00</time>
      </trkpt>
      <trkpt lat="44.97873" lon="5.8517">
        <ele>2246</ele>
        <time>2020-08-02T11:10:24+02:00</time>
      </trkpt>
      <trkpt lat="44.97878" lon="5.8518">
        <ele>2247</ele>
        <time>2020-08-02T11:10:24+02:00</time>
      </trkpt>
      <trkpt lat="44.97878" lon="5.85193">
        <ele>2247</ele>
        <time>2020-08-02T11:10:24+02:00</time>
      </trkpt>
      <trkpt lat="44.97883" lon="5.85203">
        <ele>2248</ele>
        <time>2020-08-02T11:10:24+02:00</time>
      </trkpt>
      <trkpt lat="44.9789" lon="5.85212">
        <ele>2250</ele>
        <time>2020-08-02T11:12:32+02:00</time>
      </trkpt>
      <trkpt lat="44.97899" lon="5.85218">
        <ele>2251</ele>
        <time>2020-08-02T11:12:32+02:00</time>
      </trkpt>
      <trkpt lat="44.97904" lon="5.85228">
        <ele>2255</ele>
        <time>2020-08-02T11:12:32+02:00</time>
      </trkpt>
      <trkpt lat="44.97911" lon="5.85237">
        <ele>2257</ele>
        <time>2020-08-02T11:12:32+02:00</time>
      </trkpt>
      <trkpt lat="44.97916" lon="5.85248">
        <ele>2257</ele>
        <time>2020-08-02T11:12:32+02:00</time>
      </trkpt>
      <trkpt lat="44.97921" lon="5.8526">
        <ele>2259</ele>
        <time>2020-08-02T11:12:32+02:00</time>
      </trkpt>
      <trkpt lat="44.97924" lon="5.85271">
        <ele>2261</ele>
        <time>2020-08-02T11:12:32+02:00</time>
      </trkpt>
      <trkpt lat="44.97931" lon="5.8528">
        <ele>2264</ele>
        <time>2020-08-02T11:12:32+02:00</time>
      </trkpt>
      <trkpt lat="44.9794" lon="5.85285">
        <ele>2267</ele>
        <time>2020-08-02T11:14:40+02:00</time>
      </trkpt>
      <trkpt lat="44.97949" lon="5.85289">
        <ele>2269</ele>
        <time>2020-08-02T11:14:40+02:00</time>
      </trkpt>
      <trkpt lat="44.97957" lon="5.85293">
        <ele>2267</ele>
        <time>2020-08-02T11:14:40+02:00</time>
      </trkpt>
      <trkpt lat="44.97966" lon="5.85296">
        <ele>2271</ele>
        <time>2020-08-02T11:14:40+02:00</time>
      </trkpt>
      <trkpt lat="44.97976" lon="5.853">
        <ele>2274</ele>
        <time>2020-08-02T11:14:40+02:00</time>
      </trkpt>
      <trkpt lat="44.97984" lon="5.8531">
        <ele>2276</ele>
        <time>2020-08-02T11:14:40+02:00</time>
      </trkpt>
      <trkpt lat="44.97987" lon="5.85323">
        <ele>2279</ele>
        <time>2020-08-02T11:14:40+02:00</time>
      </trkpt>
      <trkpt lat="44.97989" lon="5.85335">
        <ele>2280</ele>
        <time>2020-08-02T11:16:48+02:00</time>
      </trkpt>
      <trkpt lat="44.97994" lon="5.85347">
        <ele>2284</ele>
        <time>2020-08-02T11:16:48+02:00</time>
      </trkpt>
      <trkpt lat="44.98004" lon="5.85347">
        <ele>2288</ele>
        <time>2020-08-02T11:16:48+02:00</time>
      </trkpt>
      <trkpt lat="44.98007" lon="5.8536">
        <ele>2290</ele>
        <time>2020-08-02T11:16:48+02:00</time>
      </trkpt>
      <trkpt lat="44.98013" lon="5.85369">
        <ele>2292</ele>
        <time>2020-08-02T11:16:48+02:00</time>
      </trkpt>
      <trkpt lat="44.98018" lon="5.85381">
        <ele>2293</ele>
        <time>2020-08-02T11:16:48+02:00</time>
      </trkpt>
      <trkpt lat="44.98026" lon="5.85388">
        <ele>2293</ele>
        <time>2020-08-02T11:16:48+02:00</time>
      </trkpt>
      <trkpt lat="44.98033" lon="5.85396">
        <ele>2298</ele>
        <time>2020-08-02T11:18:56+02:00</time>
      </trkpt>
      <trkpt lat="44.98042" lon="5.85398">
        <ele>2300</ele>
        <time>2020-08-02T11:18:56+02:00</time>
      </trkpt>
      <trkpt lat="44.98049" lon="5.85407">
        <ele>2303</ele>
        <time>2020-08-02T11:18:56+02:00</time>
      </trkpt>
      <trkpt lat="44.98055" lon="5.85418">
        <ele>2307</ele>
        <time>2020-08-02T11:18:56+02:00</time>
      </trkpt>
      <trkpt lat="44.98053" lon="5.85432">
        <ele>2312</ele>
        <time>2020-08-02T11:18:56+02:00</time>
      </trkpt>
      <trkpt lat="44.98052" lon="5.85444">
        <ele>2316</ele>
        <time>2020-08-02T11:18:56+02:00</time>
      </trkpt>
      <trkpt lat="44.98048" lon="5.85457">
        <ele>2318</ele>
        <time>2020-08-02T11:21:04+02:00</time>
      </trkpt>
      <trkpt lat="44.98048" lon="5.85471">
        <ele>2321</ele>
        <time>2020-08-02T11:21:04+02:00</time>
      </trkpt>
      <trkpt lat="44.9805" lon="5.85483">
        <ele>2324</ele>
        <time>2020-08-02T11:21:04+02:00</time>
      </trkpt>
      <trkpt lat="44.98056" lon="5.85493">
        <ele>2326</ele>
        <time>2020-08-02T11:21:04+02:00</time>
      </trkpt>
      <trkpt lat="44.98062" lon="5.85503">
        <ele>2330</ele>
        <time>2020-08-02T11:21:04+02:00</time>
      </trkpt>
      <trkpt lat="44.9807" lon="5.85509">
        <ele>2331</ele>
        <time>2020-08-02T11:21:04+02:00</time>
      </trkpt>
      <trkpt lat="44.98061" lon="5.85513">
        <ele>2335</ele>
        <time>2020-08-02T11:23:12+02:00</time>
      </trkpt>
      <trkpt lat="44.98052" lon="5.85513">
        <ele>2336</ele>
        <time>2020-08-02T11:31:44+02:00</time>
      </trkpt>
      <trkpt lat="44.98043" lon="5.85514">
        <ele>2337</ele>
        <time>2020-08-02T11:31:44+02:00</time>
      </trkpt>
      <trkpt lat="44.98034" lon="5.85512">
        <ele>2340</ele>
        <time>2020-08-02T11:31:44+02:00</time>
      </trkpt>
      <trkpt lat="44.98025" lon="5.85507">
        <ele>2340</ele>
        <time>2020-08-02T11:31:44+02:00</time>
      </trkpt>
      <trkpt lat="44.98016" lon="5.85503">
        <ele>2342</ele>
        <time>2020-08-02T11:31:44+02:00</time>
      </trkpt>
      <trkpt lat="44.98007" lon="5.855">
        <ele>2344</ele>
        <time>2020-08-02T11:31:44+02:00</time>
      </trkpt>
      <trkpt lat="44.97999" lon="5.85496">
        <ele>2346</ele>
        <time>2020-08-02T11:31:44+02:00</time>
      </trkpt>
      <trkpt lat="44.97989" lon="5.85494">
        <ele>2349</ele>
        <time>2020-08-02T11:31:44+02:00</time>
      </trkpt>
      <trkpt lat="44.97981" lon="5.8549">
        <ele>2351</ele>
        <time>2020-08-02T11:31:44+02:00</time>
      </trkpt>
      <trkpt lat="44.97972" lon="5.85489">
        <ele>2355</ele>
        <time>2020-08-02T11:33:52+02:00</time>
      </trkpt>
      <trkpt lat="44.97963" lon="5.85489">
        <ele>2357</ele>
        <time>2020-08-02T11:33:52+02:00</time>
      </trkpt>
      <trkpt lat="44.97953" lon="5.8549">
        <ele>2361</ele>
        <time>2020-08-02T11:33:52+02:00</time>
      </trkpt>
      <trkpt lat="44.97945" lon="5.85496">
        <ele>2368</ele>
        <time>2020-08-02T11:33:52+02:00</time>
      </trkpt>
      <trkpt lat="44.97937" lon="5.85505">
        <ele>2371</ele>
        <time>2020-08-02T11:36:00+02:00</time>
      </trkpt>
      <trkpt lat="44.97929" lon="5.85499">
        <ele>2374</ele>
        <time>2020-08-02T11:36:00+02:00</time>
      </trkpt>
      <trkpt lat="44.9792" lon="5.85503">
        <ele>2376</ele>
        <time>2020-08-02T11:36:00+02:00</time>
      </trkpt>
      <trkpt lat="44.9791" lon="5.85501">
        <ele>2379</ele>
        <time>2020-08-02T11:36:00+02:00</time>
      </trkpt>
      <trkpt lat="44.97902" lon="5.85498">
        <ele>2381</ele>
        <time>2020-08-02T11:36:00+02:00</time>
      </trkpt>
      <trkpt lat="44.97892" lon="5.85494">
        <ele>2381</ele>
        <time>2020-08-02T11:36:00+02:00</time>
      </trkpt>
      <trkpt lat="44.97883" lon="5.85494">
        <ele>2383</ele>
        <time>2020-08-02T11:36:00+02:00</time>
      </trkpt>
      <trkpt lat="44.97874" lon="5.85495">
        <ele>2384</ele>
        <time>2020-08-02T11:36:00+02:00</time>
      </trkpt>
      <trkpt lat="44.97865" lon="5.855">
        <ele>2385</ele>
        <time>2020-08-02T11:36:00+02:00</time>
      </trkpt>
      <trkpt lat="44.97856" lon="5.85499">
        <ele>2386</ele>
        <time>2020-08-02T11:38:08+02:00</time>
      </trkpt>
      <trkpt lat="44.97847" lon="5.855">
        <ele>2389</ele>
        <time>2020-08-02T11:38:08+02:00</time>
      </trkpt>
      <trkpt lat="44.97838" lon="5.85506">
        <ele>2391</ele>
        <time>2020-08-02T11:38:08+02:00</time>
      </trkpt>
      <trkpt lat="44.97829" lon="5.85504">
        <ele>2393</ele>
        <time>2020-08-02T11:38:08+02:00</time>
      </trkpt>
      <trkpt lat="44.97819" lon="5.85508">
        <ele>2398</ele>
        <time>2020-08-02T11:38:08+02:00</time>
      </trkpt>
      <trkpt lat="44.9781" lon="5.85512">
        <ele>2400</ele>
        <time>2020-08-02T11:38:08+02:00</time>
      </trkpt>
      <trkpt lat="44.97801" lon="5.85516">
        <ele>2402</ele>
        <time>2020-08-02T11:38:08+02:00</time>
      </trkpt>
      <trkpt lat="44.97792" lon="5.85516">
        <ele>2406</ele>
        <time>2020-08-02T11:40:16+02:00</time>
      </trkpt>
      <trkpt lat="44.97782" lon="5.85517">
        <ele>2409</ele>
        <time>2020-08-02T11:40:16+02:00</time>
      </trkpt>
      <trkpt lat="44.97773" lon="5.85517">
        <ele>2412</ele>
        <time>2020-08-02T11:40:16+02:00</time>
      </trkpt>
      <trkpt lat="44.97763" lon="5.85522">
        <ele>2415</ele>
        <time>2020-08-02T11:40:16+02:00</time>
      </trkpt>
      <trkpt lat="44.97753" lon="5.85525">
        <ele>2418</ele>
        <time>2020-08-02T11:40:16+02:00</time>
      </trkpt>
      <trkpt lat="44.97744" lon="5.85528">
        <ele>2421</ele>
        <time>2020-08-02T11:40:16+02:00</time>
      </trkpt>
      <trkpt lat="44.97735" lon="5.85531">
        <ele>2425</ele>
        <time>2020-08-02T11:44:32+02:00</time>
      </trkpt>
      <trkpt lat="44.97725" lon="5.85531">
        <ele>2428</ele>
        <time>2020-08-02T11:44:32+02:00</time>
      </trkpt>
      <trkpt lat="44.97717" lon="5.85537">
        <ele>2430</ele>
        <time>2020-08-02T11:44:32+02:00</time>
      </trkpt>
      <trkpt lat="44.97709" lon="5.85543">
        <ele>2433</ele>
        <time>2020-08-02T11:44:32+02:00</time>
      </trkpt>
      <trkpt lat="44.97699" lon="5.85543">
        <ele>2437</ele>
        <time>2020-08-02T11:44:32+02:00</time>
      </trkpt>
      <trkpt lat="44.97691" lon="5.85549">
        <ele>2441</ele>
        <time>2020-08-02T11:44:32+02:00</time>
      </trkpt>
      <trkpt lat="44.97684" lon="5.85559">
        <ele>2442</ele>
        <time>2020-08-02T11:46:40+02:00</time>
      </trkpt>
      <trkpt lat="44.97684" lon="5.85546">
        <ele>2443</ele>
        <time>2020-08-02T12:27:12+02:00</time>
      </trkpt>
      <trkpt lat="44.97693" lon="5.85542">
        <ele>2441</ele>
        <time>2020-08-02T12:48:32+02:00</time>
      </trkpt>
      <trkpt lat="44.97702" lon="5.85538">
        <ele>2437</ele>
        <time>2020-08-02T12:48:32+02:00</time>
      </trkpt>
      <trkpt lat="44.97711" lon="5.85532">
        <ele>2435</ele>
        <time>2020-08-02T12:48:32+02:00</time>
      </trkpt>
      <trkpt lat="44.97718" lon="5.85525">
        <ele>2432</ele>
        <time>2020-08-02T12:48:32+02:00</time>
      </trkpt>
      <trkpt lat="44.97722" lon="5.85513">
        <ele>2430</ele>
        <time>2020-08-02T12:50:40+02:00</time>
      </trkpt>
      <trkpt lat="44.97725" lon="5.85501">
        <ele>2426</ele>
        <time>2020-08-02T12:50:40+02:00</time>
      </trkpt>
      <trkpt lat="44.97725" lon="5.85488">
        <ele>2423</ele>
        <time>2020-08-02T12:50:40+02:00</time>
      </trkpt>
      <trkpt lat="44.97726" lon="5.85475">
        <ele>2417</ele>
        <time>2020-08-02T12:50:40+02:00</time>
      </trkpt>
      <trkpt lat="44.97725" lon="5.85462">
        <ele>2413</ele>
        <time>2020-08-02T12:50:40+02:00</time>
      </trkpt>
      <trkpt lat="44.9772" lon="5.85451">
        <ele>2409</ele>
        <time>2020-08-02T12:50:40+02:00</time>
      </trkpt>
      <trkpt lat="44.97724" lon="5.85439">
        <ele>2406</ele>
        <time>2020-08-02T12:50:40+02:00</time>
      </trkpt>
      <trkpt lat="44.97722" lon="5.85426">
        <ele>2404</ele>
        <time>2020-08-02T12:52:48+02:00</time>
      </trkpt>
      <trkpt lat="44.97719" lon="5.85414">
        <ele>2400</ele>
        <time>2020-08-02T12:52:48+02:00</time>
      </trkpt>
      <trkpt lat="44.97721" lon="5.85401">
        <ele>2392</ele>
        <time>2020-08-02T12:52:48+02:00</time>
      </trkpt>
      <trkpt lat="44.97725" lon="5.85389">
        <ele>2387</ele>
        <time>2020-08-02T12:52:48+02:00</time>
      </trkpt>
      <trkpt lat="44.97718" lon="5.85379">
        <ele>2384</ele>
        <time>2020-08-02T12:52:48+02:00</time>
      </trkpt>
      <trkpt lat="44.9771" lon="5.85372">
        <ele>2380</ele>
        <time>2020-08-02T12:54:56+02:00</time>
      </trkpt>
      <trkpt lat="44.97703" lon="5.85363">
        <ele>2377</ele>
        <time>2020-08-02T12:54:56+02:00</time>
      </trkpt>
      <trkpt lat="44.97698" lon="5.85352">
        <ele>2375</ele>
        <time>2020-08-02T12:54:56+02:00</time>
      </trkpt>
      <trkpt lat="44.9769" lon="5.85344">
        <ele>2373</ele>
        <time>2020-08-02T12:54:56+02:00</time>
      </trkpt>
      <trkpt lat="44.97684" lon="5.85334">
        <ele>2370</ele>
        <time>2020-08-02T12:54:56+02:00</time>
      </trkpt>
      <trkpt lat="44.97681" lon="5.85321">
        <ele>2368</ele>
        <time>2020-08-02T12:54:56+02:00</time>
      </trkpt>
      <trkpt lat="44.97678" lon="5.85309">
        <ele>2367</ele>
        <time>2020-08-02T12:54:56+02:00</time>
      </trkpt>
      <trkpt lat="44.97674" lon="5.85296">
        <ele>2365</ele>
        <time>2020-08-02T12:57:04+02:00</time>
      </trkpt>
      <trkpt lat="44.97669" lon="5.85285">
        <ele>2362</ele>
        <time>2020-08-02T12:57:04+02:00</time>
      </trkpt>
      <trkpt lat="44.97667" lon="5.85271">
        <ele>2360</ele>
        <time>2020-08-02T12:57:04+02:00</time>
      </trkpt>
      <trkpt lat="44.97662" lon="5.8526">
        <ele>2358</ele>
        <time>2020-08-02T12:57:04+02:00</time>
      </trkpt>
      <trkpt lat="44.97656" lon="5.85249">
        <ele>2360</ele>
        <time>2020-08-02T12:57:04+02:00</time>
      </trkpt>
      <trkpt lat="44.97653" lon="5.85237">
        <ele>2359</ele>
        <time>2020-08-02T12:57:04+02:00</time>
      </trkpt>
      <trkpt lat="44.97644" lon="5.85235">
        <ele>2360</ele>
        <time>2020-08-02T12:57:04+02:00</time>
      </trkpt>
      <trkpt lat="44.97636" lon="5.85228">
        <ele>2362</ele>
        <time>2020-08-02T12:59:12+02:00</time>
      </trkpt>
      <trkpt lat="44.97628" lon="5.85221">
        <ele>2362</ele>
        <time>2020-08-02T12:59:12+02:00</time>
      </trkpt>
      <trkpt lat="44.97619" lon="5.85214">
        <ele>2362</ele>
        <time>2020-08-02T12:59:12+02:00</time>
      </trkpt>
      <trkpt lat="44.97612" lon="5.85206">
        <ele>2362</ele>
        <time>2020-08-02T12:59:12+02:00</time>
      </trkpt>
      <trkpt lat="44.97605" lon="5.85196">
        <ele>2363</ele>
        <time>2020-08-02T12:59:12+02:00</time>
      </trkpt>
      <trkpt lat="44.97599" lon="5.85186">
        <ele>2364</ele>
        <time>2020-08-02T12:59:12+02:00</time>
      </trkpt>
      <trkpt lat="44.97591" lon="5.85179">
        <ele>2362</ele>
        <time>2020-08-02T12:59:12+02:00</time>
      </trkpt>
      <trkpt lat="44.97584" lon="5.85171">
        <ele>2363</ele>
        <time>2020-08-02T12:59:12+02:00</time>
      </trkpt>
      <trkpt lat="44.97577" lon="5.85163">
        <ele>2361</ele>
        <time>2020-08-02T12:59:12+02:00</time>
      </trkpt>
      <trkpt lat="44.97568" lon="5.85156">
        <ele>2361</ele>
        <time>2020-08-02T12:59:12+02:00</time>
      </trkpt>
      <trkpt lat="44.9756" lon="5.85151">
        <ele>2359</ele>
        <time>2020-08-02T13:01:20+02:00</time>
      </trkpt>
      <trkpt lat="44.9755" lon="5.85148">
        <ele>2359</ele>
        <time>2020-08-02T13:01:20+02:00</time>
      </trkpt>
      <trkpt lat="44.97541" lon="5.85143">
        <ele>2359</ele>
        <time>2020-08-02T13:01:20+02:00</time>
      </trkpt>
      <trkpt lat="44.97533" lon="5.85139">
        <ele>2359</ele>
        <time>2020-08-02T13:01:20+02:00</time>
      </trkpt>
      <trkpt lat="44.97524" lon="5.85134">
        <ele>2357</ele>
        <time>2020-08-02T13:01:20+02:00</time>
      </trkpt>
      <trkpt lat="44.97515" lon="5.85128">
        <ele>2357</ele>
        <time>2020-08-02T13:01:20+02:00</time>
      </trkpt>
      <trkpt lat="44.97507" lon="5.85121">
        <ele>2357</ele>
        <time>2020-08-02T13:01:20+02:00</time>
      </trkpt>
      <trkpt lat="44.975" lon="5.85113">
        <ele>2356</ele>
        <time>2020-08-02T13:01:20+02:00</time>
      </trkpt>
      <trkpt lat="44.97492" lon="5.85106">
        <ele>2356</ele>
        <time>2020-08-02T13:01:20+02:00</time>
      </trkpt>
      <trkpt lat="44.97484" lon="5.85098">
        <ele>2355</ele>
        <time>2020-08-02T13:01:20+02:00</time>
      </trkpt>
      <trkpt lat="44.97475" lon="5.85091">
        <ele>2353</ele>
        <time>2020-08-02T13:01:20+02:00</time>
      </trkpt>
      <trkpt lat="44.97467" lon="5.85085">
        <ele>2353</ele>
        <time>2020-08-02T13:03:28+02:00</time>
      </trkpt>
      <trkpt lat="44.97459" lon="5.85078">
        <ele>2352</ele>
        <time>2020-08-02T13:03:28+02:00</time>
      </trkpt>
      <trkpt lat="44.9745" lon="5.85072">
        <ele>2350</ele>
        <time>2020-08-02T13:03:28+02:00</time>
      </trkpt>
      <trkpt lat="44.97441" lon="5.85068">
        <ele>2349</ele>
        <time>2020-08-02T13:03:28+02:00</time>
      </trkpt>
      <trkpt lat="44.97434" lon="5.8506">
        <ele>2348</ele>
        <time>2020-08-02T13:03:28+02:00</time>
      </trkpt>
      <trkpt lat="44.97427" lon="5.85051">
        <ele>2346</ele>
        <time>2020-08-02T13:03:28+02:00</time>
      </trkpt>
      <trkpt lat="44.97421" lon="5.85042">
        <ele>2340</ele>
        <time>2020-08-02T13:03:28+02:00</time>
      </trkpt>
      <trkpt lat="44.97416" lon="5.85031">
        <ele>2337</ele>
        <time>2020-08-02T13:03:28+02:00</time>
      </trkpt>
      <trkpt lat="44.9741" lon="5.8502">
        <ele>2335</ele>
        <time>2020-08-02T13:03:28+02:00</time>
      </trkpt>
      <trkpt lat="44.97405" lon="5.85009">
        <ele>2333</ele>
        <time>2020-08-02T13:03:28+02:00</time>
      </trkpt>
      <trkpt lat="44.97398" lon="5.85">
        <ele>2331</ele>
        <time>2020-08-02T13:03:28+02:00</time>
      </trkpt>
      <trkpt lat="44.97391" lon="5.8499">
        <ele>2330</ele>
        <time>2020-08-02T13:05:36+02:00</time>
      </trkpt>
      <trkpt lat="44.97384" lon="5.8498">
        <ele>2327</ele>
        <time>2020-08-02T13:05:36+02:00</time>
      </trkpt>
      <trkpt lat="44.97377" lon="5.84971">
        <ele>2326</ele>
        <time>2020-08-02T13:05:36+02:00</time>
      </trkpt>
      <trkpt lat="44.9737" lon="5.84963">
        <ele>2324</ele>
        <time>2020-08-02T13:05:36+02:00</time>
      </trkpt>
      <trkpt lat="44.97363" lon="5.84955">
        <ele>2322</ele>
        <time>2020-08-02T13:05:36+02:00</time>
      </trkpt>
      <trkpt lat="44.97356" lon="5.84947">
        <ele>2320</ele>
        <time>2020-08-02T13:05:36+02:00</time>
      </trkpt>
      <trkpt lat="44.97348" lon="5.84939">
        <ele>2319</ele>
        <time>2020-08-02T13:05:36+02:00</time>
      </trkpt>
      <trkpt lat="44.97341" lon="5.84931">
        <ele>2317</ele>
        <time>2020-08-02T13:05:36+02:00</time>
      </trkpt>
      <trkpt lat="44.97335" lon="5.84922">
        <ele>2316</ele>
        <time>2020-08-02T13:05:36+02:00</time>
      </trkpt>
      <trkpt lat="44.97329" lon="5.84911">
        <ele>2314</ele>
        <time>2020-08-02T13:05:36+02:00</time>
      </trkpt>
      <trkpt lat="44.97321" lon="5.84905">
        <ele>2312</ele>
        <time>2020-08-02T13:05:36+02:00</time>
      </trkpt>
      <trkpt lat="44.97313" lon="5.84897">
        <ele>2309</ele>
        <time>2020-08-02T13:05:36+02:00</time>
      </trkpt>
      <trkpt lat="44.97309" lon="5.84886">
        <ele>2307</ele>
        <time>2020-08-02T13:07:44+02:00</time>
      </trkpt>
      <trkpt lat="44.97302" lon="5.84876">
        <ele>2303</ele>
        <time>2020-08-02T13:07:44+02:00</time>
      </trkpt>
      <trkpt lat="44.97295" lon="5.84867">
        <ele>2301</ele>
        <time>2020-08-02T13:07:44+02:00</time>
      </trkpt>
      <trkpt lat="44.97288" lon="5.8486">
        <ele>2299</ele>
        <time>2020-08-02T13:07:44+02:00</time>
      </trkpt>
      <trkpt lat="44.97283" lon="5.84848">
        <ele>2297</ele>
        <time>2020-08-02T13:07:44+02:00</time>
      </trkpt>
      <trkpt lat="44.97279" lon="5.84837">
        <ele>2296</ele>
        <time>2020-08-02T13:07:44+02:00</time>
      </trkpt>
      <trkpt lat="44.97274" lon="5.84825">
        <ele>2294</ele>
        <time>2020-08-02T13:07:44+02:00</time>
      </trkpt>
      <trkpt lat="44.97266" lon="5.84818">
        <ele>2293</ele>
        <time>2020-08-02T13:07:44+02:00</time>
      </trkpt>
      <trkpt lat="44.97262" lon="5.84806">
        <ele>2289</ele>
        <time>2020-08-02T13:07:44+02:00</time>
      </trkpt>
      <trkpt lat="44.97256" lon="5.84795">
        <ele>2287</ele>
        <time>2020-08-02T13:07:44+02:00</time>
      </trkpt>
      <trkpt lat="44.97251" lon="5.84784">
        <ele>2286</ele>
        <time>2020-08-02T13:07:44+02:00</time>
      </trkpt>
      <trkpt lat="44.97246" lon="5.84773">
        <ele>2283</ele>
        <time>2020-08-02T13:09:52+02:00</time>
      </trkpt>
      <trkpt lat="44.97246" lon="5.84759">
        <ele>2283</ele>
        <time>2020-08-02T13:09:52+02:00</time>
      </trkpt>
      <trkpt lat="44.97246" lon="5.84746">
        <ele>2280</ele>
        <time>2020-08-02T13:09:52+02:00</time>
      </trkpt>
      <trkpt lat="44.97247" lon="5.84733">
        <ele>2277</ele>
        <time>2020-08-02T13:09:52+02:00</time>
      </trkpt>
      <trkpt lat="44.97249" lon="5.8472">
        <ele>2275</ele>
        <time>2020-08-02T13:09:52+02:00</time>
      </trkpt>
      <trkpt lat="44.97253" lon="5.84708">
        <ele>2273</ele>
        <time>2020-08-02T13:09:52+02:00</time>
      </trkpt>
      <trkpt lat="44.97261" lon="5.847">
        <ele>2271</ele>
        <time>2020-08-02T13:09:52+02:00</time>
      </trkpt>
      <trkpt lat="44.9727" lon="5.84695">
        <ele>2268</ele>
        <time>2020-08-02T13:09:52+02:00</time>
      </trkpt>
      <trkpt lat="44.97278" lon="5.84688">
        <ele>2265</ele>
        <time>2020-08-02T13:09:52+02:00</time>
      </trkpt>
      <trkpt lat="44.97288" lon="5.84686">
        <ele>2263</ele>
        <time>2020-08-02T13:09:52+02:00</time>
      </trkpt>
      <trkpt lat="44.97296" lon="5.84683">
        <ele>2260</ele>
        <time>2020-08-02T13:12:00+02:00</time>
      </trkpt>
      <trkpt lat="44.97306" lon="5.84682">
        <ele>2260</ele>
        <time>2020-08-02T13:12:00+02:00</time>
      </trkpt>
      <trkpt lat="44.97316" lon="5.84681">
        <ele>2256</ele>
        <time>2020-08-02T13:12:00+02:00</time>
      </trkpt>
      <trkpt lat="44.97325" lon="5.8468">
        <ele>2254</ele>
        <time>2020-08-02T13:12:00+02:00</time>
      </trkpt>
      <trkpt lat="44.97334" lon="5.8468">
        <ele>2251</ele>
        <time>2020-08-02T13:12:00+02:00</time>
      </trkpt>
      <trkpt lat="44.97344" lon="5.8468">
        <ele>2250</ele>
        <time>2020-08-02T13:12:00+02:00</time>
      </trkpt>
      <trkpt lat="44.97353" lon="5.8468">
        <ele>2246</ele>
        <time>2020-08-02T13:12:00+02:00</time>
      </trkpt>
      <trkpt lat="44.97362" lon="5.84678">
        <ele>2243</ele>
        <time>2020-08-02T13:12:00+02:00</time>
      </trkpt>
      <trkpt lat="44.97372" lon="5.84678">
        <ele>2241</ele>
        <time>2020-08-02T13:12:00+02:00</time>
      </trkpt>
      <trkpt lat="44.97381" lon="5.8468">
        <ele>2240</ele>
        <time>2020-08-02T13:12:00+02:00</time>
      </trkpt>
      <trkpt lat="44.9739" lon="5.84682">
        <ele>2239</ele>
        <time>2020-08-02T13:12:00+02:00</time>
      </trkpt>
      <trkpt lat="44.97399" lon="5.84683">
        <ele>2236</ele>
        <time>2020-08-02T13:16:16+02:00</time>
      </trkpt>
      <trkpt lat="44.97409" lon="5.84683">
        <ele>2233</ele>
        <time>2020-08-02T13:16:16+02:00</time>
      </trkpt>
      <trkpt lat="44.97418" lon="5.84685">
        <ele>2231</ele>
        <time>2020-08-02T13:16:16+02:00</time>
      </trkpt>
      <trkpt lat="44.97428" lon="5.84686">
        <ele>2229</ele>
        <time>2020-08-02T13:16:16+02:00</time>
      </trkpt>
      <trkpt lat="44.97438" lon="5.84687">
        <ele>2227</ele>
        <time>2020-08-02T13:16:16+02:00</time>
      </trkpt>
      <trkpt lat="44.97447" lon="5.8469">
        <ele>2226</ele>
        <time>2020-08-02T13:16:16+02:00</time>
      </trkpt>
      <trkpt lat="44.97456" lon="5.84692">
        <ele>2225</ele>
        <time>2020-08-02T13:16:16+02:00</time>
      </trkpt>
      <trkpt lat="44.97465" lon="5.84695">
        <ele>2224</ele>
        <time>2020-08-02T13:16:16+02:00</time>
      </trkpt>
      <trkpt lat="44.97474" lon="5.84699">
        <ele>2224</ele>
        <time>2020-08-02T13:16:16+02:00</time>
      </trkpt>
      <trkpt lat="44.97483" lon="5.847">
        <ele>2223</ele>
        <time>2020-08-02T13:16:16+02:00</time>
      </trkpt>
      <trkpt lat="44.97493" lon="5.847">
        <ele>2221</ele>
        <time>2020-08-02T13:16:16+02:00</time>
      </trkpt>
      <trkpt lat="44.97502" lon="5.84699">
        <ele>2220</ele>
        <time>2020-08-02T13:16:16+02:00</time>
      </trkpt>
      <trkpt lat="44.97511" lon="5.84701">
        <ele>2219</ele>
        <time>2020-08-02T13:16:16+02:00</time>
      </trkpt>
      <trkpt lat="44.97521" lon="5.84702">
        <ele>2218</ele>
        <time>2020-08-02T13:18:24+02:00</time>
      </trkpt>
      <trkpt lat="44.97531" lon="5.84705">
        <ele>2216</ele>
        <time>2020-08-02T13:18:24+02:00</time>
      </trkpt>
      <trkpt lat="44.9754" lon="5.84706">
        <ele>2215</ele>
        <time>2020-08-02T13:18:24+02:00</time>
      </trkpt>
      <trkpt lat="44.97549" lon="5.84711">
        <ele>2214</ele>
        <time>2020-08-02T13:18:24+02:00</time>
      </trkpt>
      <trkpt lat="44.97558" lon="5.84714">
        <ele>2213</ele>
        <time>2020-08-02T13:18:24+02:00</time>
      </trkpt>
      <trkpt lat="44.97568" lon="5.84717">
        <ele>2213</ele>
        <time>2020-08-02T13:18:24+02:00</time>
      </trkpt>
      <trkpt lat="44.97577" lon="5.84718">
        <ele>2212</ele>
        <time>2020-08-02T13:18:24+02:00</time>
      </trkpt>
      <trkpt lat="44.97586" lon="5.8472">
        <ele>2212</ele>
        <time>2020-08-02T13:18:24+02:00</time>
      </trkpt>
      <trkpt lat="44.97595" lon="5.84722">
        <ele>2211</ele>
        <time>2020-08-02T13:18:24+02:00</time>
      </trkpt>
      <trkpt lat="44.97605" lon="5.84725">
        <ele>2209</ele>
        <time>2020-08-02T13:18:24+02:00</time>
      </trkpt>
      <trkpt lat="44.97614" lon="5.84726">
        <ele>2209</ele>
        <time>2020-08-02T13:18:24+02:00</time>
      </trkpt>
      <trkpt lat="44.97623" lon="5.84726">
        <ele>2207</ele>
        <time>2020-08-02T13:18:24+02:00</time>
      </trkpt>
      <trkpt lat="44.97633" lon="5.84726">
        <ele>2204</ele>
        <time>2020-08-02T13:20:32+02:00</time>
      </trkpt>
      <trkpt lat="44.97642" lon="5.84728">
        <ele>2204</ele>
        <time>2020-08-02T13:20:32+02:00</time>
      </trkpt>
      <trkpt lat="44.97651" lon="5.8473">
        <ele>2202</ele>
        <time>2020-08-02T13:20:32+02:00</time>
      </trkpt>
      <trkpt lat="44.9766" lon="5.84732">
        <ele>2199</ele>
        <time>2020-08-02T13:20:32+02:00</time>
      </trkpt>
      <trkpt lat="44.97669" lon="5.84736">
        <ele>2195</ele>
        <time>2020-08-02T13:20:32+02:00</time>
      </trkpt>
      <trkpt lat="44.97677" lon="5.8474">
        <ele>2193</ele>
        <time>2020-08-02T13:20:32+02:00</time>
      </trkpt>
      <trkpt lat="44.97686" lon="5.84743">
        <ele>2191</ele>
        <time>2020-08-02T13:20:32+02:00</time>
      </trkpt>
      <trkpt lat="44.97697" lon="5.84745">
        <ele>2188</ele>
        <time>2020-08-02T13:20:32+02:00</time>
      </trkpt>
      <trkpt lat="44.97706" lon="5.84745">
        <ele>2188</ele>
        <time>2020-08-02T13:20:32+02:00</time>
      </trkpt>
      <trkpt lat="44.97715" lon="5.84749">
        <ele>2183</ele>
        <time>2020-08-02T13:22:40+02:00</time>
      </trkpt>
      <trkpt lat="44.97724" lon="5.84752">
        <ele>2180</ele>
        <time>2020-08-02T13:22:40+02:00</time>
      </trkpt>
      <trkpt lat="44.97733" lon="5.84755">
        <ele>2178</ele>
        <time>2020-08-02T13:22:40+02:00</time>
      </trkpt>
      <trkpt lat="44.97742" lon="5.84757">
        <ele>2175</ele>
        <time>2020-08-02T13:22:40+02:00</time>
      </trkpt>
      <trkpt lat="44.97751" lon="5.8476">
        <ele>2172</ele>
        <time>2020-08-02T13:22:40+02:00</time>
      </trkpt>
      <trkpt lat="44.97761" lon="5.84758">
        <ele>2168</ele>
        <time>2020-08-02T13:22:40+02:00</time>
      </trkpt>
      <trkpt lat="44.97767" lon="5.84767">
        <ele>2165</ele>
        <time>2020-08-02T13:24:48+02:00</time>
      </trkpt>
      <trkpt lat="44.97772" lon="5.84778">
        <ele>2161</ele>
        <time>2020-08-02T13:24:48+02:00</time>
      </trkpt>
      <trkpt lat="44.9778" lon="5.84784">
        <ele>2152</ele>
        <time>2020-08-02T13:24:48+02:00</time>
      </trkpt>
      <trkpt lat="44.97785" lon="5.84797">
        <ele>2150</ele>
        <time>2020-08-02T13:26:56+02:00</time>
      </trkpt>
      <trkpt lat="44.97788" lon="5.84809">
        <ele>2143</ele>
        <time>2020-08-02T13:26:56+02:00</time>
      </trkpt>
      <trkpt lat="44.97795" lon="5.84818">
        <ele>2137</ele>
        <time>2020-08-02T13:29:04+02:00</time>
      </trkpt>
      <trkpt lat="44.97804" lon="5.8482">
        <ele>2129</ele>
        <time>2020-08-02T13:29:04+02:00</time>
      </trkpt>
      <trkpt lat="44.97814" lon="5.84818">
        <ele>2122</ele>
        <time>2020-08-02T13:29:04+02:00</time>
      </trkpt>
      <trkpt lat="44.97822" lon="5.84824">
        <ele>2121</ele>
        <time>2020-08-02T13:31:12+02:00</time>
      </trkpt>
      <trkpt lat="44.9783" lon="5.8483">
        <ele>2117</ele>
        <time>2020-08-02T13:31:12+02:00</time>
      </trkpt>
      <trkpt lat="44.97839" lon="5.84836">
        <ele>2117</ele>
        <time>2020-08-02T13:31:12+02:00</time>
      </trkpt>
      <trkpt lat="44.97848" lon="5.84834">
        <ele>2113</ele>
        <time>2020-08-02T13:33:20+02:00</time>
      </trkpt>
      <trkpt lat="44.97857" lon="5.84834">
        <ele>2111</ele>
        <time>2020-08-02T13:33:20+02:00</time>
      </trkpt>
      <trkpt lat="44.97866" lon="5.84833">
        <ele>2111</ele>
        <time>2020-08-02T13:33:20+02:00</time>
      </trkpt>
      <trkpt lat="44.97875" lon="5.84828">
        <ele>2109</ele>
        <time>2020-08-02T13:33:20+02:00</time>
      </trkpt>
      <trkpt lat="44.97885" lon="5.84825">
        <ele>2106</ele>
        <time>2020-08-02T13:33:20+02:00</time>
      </trkpt>
      <trkpt lat="44.97894" lon="5.84825">
        <ele>2103</ele>
        <time>2020-08-02T13:33:20+02:00</time>
      </trkpt>
      <trkpt lat="44.97903" lon="5.84821">
        <ele>2098</ele>
        <time>2020-08-02T13:33:20+02:00</time>
      </trkpt>
      <trkpt lat="44.97912" lon="5.84825">
        <ele>2097</ele>
        <time>2020-08-02T13:35:28+02:00</time>
      </trkpt>
      <trkpt lat="44.97921" lon="5.84822">
        <ele>2094</ele>
        <time>2020-08-02T13:35:28+02:00</time>
      </trkpt>
      <trkpt lat="44.9793" lon="5.84819">
        <ele>2089</ele>
        <time>2020-08-02T13:35:28+02:00</time>
      </trkpt>
      <trkpt lat="44.97939" lon="5.84819">
        <ele>2089</ele>
        <time>2020-08-02T13:35:28+02:00</time>
      </trkpt>
      <trkpt lat="44.97948" lon="5.84817">
        <ele>2087</ele>
        <time>2020-08-02T13:35:28+02:00</time>
      </trkpt>
      <trkpt lat="44.97958" lon="5.84814">
        <ele>2084</ele>
        <time>2020-08-02T13:35:28+02:00</time>
      </trkpt>
      <trkpt lat="44.97967" lon="5.84812">
        <ele>2083</ele>
        <time>2020-08-02T13:35:28+02:00</time>
      </trkpt>
      <trkpt lat="44.97975" lon="5.84807">
        <ele>2082</ele>
        <time>2020-08-02T13:35:28+02:00</time>
      </trkpt>
      <trkpt lat="44.97985" lon="5.8481">
        <ele>2082</ele>
        <time>2020-08-02T13:35:28+02:00</time>
      </trkpt>
      <trkpt lat="44.97995" lon="5.84811">
        <ele>2080</ele>
        <time>2020-08-02T13:35:28+02:00</time>
      </trkpt>
      <trkpt lat="44.98004" lon="5.84815">
        <ele>2078</ele>
        <time>2020-08-02T13:37:36+02:00</time>
      </trkpt>
      <trkpt lat="44.98013" lon="5.84818">
        <ele>2077</ele>
        <time>2020-08-02T13:37:36+02:00</time>
      </trkpt>
      <trkpt lat="44.98022" lon="5.84821">
        <ele>2078</ele>
        <time>2020-08-02T13:37:36+02:00</time>
      </trkpt>
      <trkpt lat="44.98031" lon="5.84821">
        <ele>2076</ele>
        <time>2020-08-02T13:37:36+02:00</time>
      </trkpt>
      <trkpt lat="44.9804" lon="5.84824">
        <ele>2073</ele>
        <time>2020-08-02T13:37:36+02:00</time>
      </trkpt>
      <trkpt lat="44.9805" lon="5.84825">
        <ele>2072</ele>
        <time>2020-08-02T13:37:36+02:00</time>
      </trkpt>
      <trkpt lat="44.98059" lon="5.84829">
        <ele>2069</ele>
        <time>2020-08-02T13:37:36+02:00</time>
      </trkpt>
      <trkpt lat="44.98068" lon="5.84829">
        <ele>2068</ele>
        <time>2020-08-02T13:37:36+02:00</time>
      </trkpt>
      <trkpt lat="44.98077" lon="5.8483">
        <ele>2065</ele>
        <time>2020-08-02T13:37:36+02:00</time>
      </trkpt>
      <trkpt lat="44.98087" lon="5.84829">
        <ele>2062</ele>
        <time>2020-08-02T13:44:00+02:00</time>
      </trkpt>
      <trkpt lat="44.98096" lon="5.84829">
        <ele>2061</ele>
        <time>2020-08-02T13:44:00+02:00</time>
      </trkpt>
      <trkpt lat="44.98105" lon="5.8483">
        <ele>2059</ele>
        <time>2020-08-02T13:44:00+02:00</time>
      </trkpt>
      <trkpt lat="44.98115" lon="5.84829">
        <ele>2059</ele>
        <time>2020-08-02T13:44:00+02:00</time>
      </trkpt>
      <trkpt lat="44.98124" lon="5.84832">
        <ele>2058</ele>
        <time>2020-08-02T13:44:00+02:00</time>
      </trkpt>
      <trkpt lat="44.98134" lon="5.84832">
        <ele>2059</ele>
        <time>2020-08-02T13:44:00+02:00</time>
      </trkpt>
      <trkpt lat="44.98143" lon="5.84834">
        <ele>2058</ele>
        <time>2020-08-02T13:46:08+02:00</time>
      </trkpt>
      <trkpt lat="44.98152" lon="5.84834">
        <ele>2058</ele>
        <time>2020-08-02T13:46:08+02:00</time>
      </trkpt>
      <trkpt lat="44.98162" lon="5.84831">
        <ele>2056</ele>
        <time>2020-08-02T13:46:08+02:00</time>
      </trkpt>
      <trkpt lat="44.98171" lon="5.84834">
        <ele>2055</ele>
        <time>2020-08-02T13:46:08+02:00</time>
      </trkpt>
      <trkpt lat="44.9818" lon="5.84833">
        <ele>2054</ele>
        <time>2020-08-02T13:46:08+02:00</time>
      </trkpt>
      <trkpt lat="44.9819" lon="5.84831">
        <ele>2052</ele>
        <time>2020-08-02T13:46:08+02:00</time>
      </trkpt>
      <trkpt lat="44.98199" lon="5.84835">
        <ele>2053</ele>
        <time>2020-08-02T13:46:08+02:00</time>
      </trkpt>
      <trkpt lat="44.98208" lon="5.84841">
        <ele>2051</ele>
        <time>2020-08-02T13:46:08+02:00</time>
      </trkpt>
      <trkpt lat="44.98217" lon="5.84839">
        <ele>2048</ele>
        <time>2020-08-02T13:46:08+02:00</time>
      </trkpt>
      <trkpt lat="44.98226" lon="5.84836">
        <ele>2046</ele>
        <time>2020-08-02T13:48:16+02:00</time>
      </trkpt>
      <trkpt lat="44.98235" lon="5.84837">
        <ele>2040</ele>
        <time>2020-08-02T13:48:16+02:00</time>
      </trkpt>
      <trkpt lat="44.98244" lon="5.84837">
        <ele>2036</ele>
        <time>2020-08-02T13:48:16+02:00</time>
      </trkpt>
      <trkpt lat="44.98253" lon="5.84831">
        <ele>2035</ele>
        <time>2020-08-02T13:48:16+02:00</time>
      </trkpt>
      <trkpt lat="44.98261" lon="5.84826">
        <ele>2031</ele>
        <time>2020-08-02T13:48:16+02:00</time>
      </trkpt>
      <trkpt lat="44.9827" lon="5.84819">
        <ele>2030</ele>
        <time>2020-08-02T13:48:16+02:00</time>
      </trkpt>
      <trkpt lat="44.98279" lon="5.84817">
        <ele>2027</ele>
        <time>2020-08-02T13:48:16+02:00</time>
      </trkpt>
      <trkpt lat="44.98289" lon="5.84815">
        <ele>2026</ele>
        <time>2020-08-02T13:48:16+02:00</time>
      </trkpt>
      <trkpt lat="44.98298" lon="5.84812">
        <ele>2024</ele>
        <time>2020-08-02T13:48:16+02:00</time>
      </trkpt>
      <trkpt lat="44.98307" lon="5.8481">
        <ele>2022</ele>
        <time>2020-08-02T13:50:24+02:00</time>
      </trkpt>
      <trkpt lat="44.98316" lon="5.84807">
        <ele>2022</ele>
        <time>2020-08-02T13:50:24+02:00</time>
      </trkpt>
      <trkpt lat="44.98324" lon="5.84801">
        <ele>2020</ele>
        <time>2020-08-02T13:50:24+02:00</time>
      </trkpt>
      <trkpt lat="44.98332" lon="5.84793">
        <ele>2018</ele>
        <time>2020-08-02T13:50:24+02:00</time>
      </trkpt>
      <trkpt lat="44.98338" lon="5.84783">
        <ele>2016</ele>
        <time>2020-08-02T13:50:24+02:00</time>
      </trkpt>
      <trkpt lat="44.98342" lon="5.8477">
        <ele>2017</ele>
        <time>2020-08-02T13:50:24+02:00</time>
      </trkpt>
      <trkpt lat="44.98342" lon="5.84757">
        <ele>2016</ele>
        <time>2020-08-02T13:50:24+02:00</time>
      </trkpt>
      <trkpt lat="44.9834" lon="5.84744">
        <ele>2015</ele>
        <time>2020-08-02T13:50:24+02:00</time>
      </trkpt>
      <trkpt lat="44.98339" lon="5.84731">
        <ele>2017</ele>
        <time>2020-08-02T13:50:24+02:00</time>
      </trkpt>
      <trkpt lat="44.98343" lon="5.8472">
        <ele>2016</ele>
        <time>2020-08-02T13:50:24+02:00</time>
      </trkpt>
      <trkpt lat="44.98338" lon="5.84709">
        <ele>2012</ele>
        <time>2020-08-02T13:50:24+02:00</time>
      </trkpt>
      <trkpt lat="44.98331" lon="5.847">
        <ele>2010</ele>
        <time>2020-08-02T13:52:32+02:00</time>
      </trkpt>
      <trkpt lat="44.98323" lon="5.84693">
        <ele>2006</ele>
        <time>2020-08-02T13:52:32+02:00</time>
      </trkpt>
      <trkpt lat="44.98313" lon="5.84692">
        <ele>2004</ele>
        <time>2020-08-02T13:52:32+02:00</time>
      </trkpt>
      <trkpt lat="44.98304" lon="5.84688">
        <ele>2001</ele>
        <time>2020-08-02T13:52:32+02:00</time>
      </trkpt>
      <trkpt lat="44.98295" lon="5.84693">
        <ele>2001</ele>
        <time>2020-08-02T13:52:32+02:00</time>
      </trkpt>
      <trkpt lat="44.98288" lon="5.84683">
        <ele>1996</ele>
        <time>2020-08-02T13:52:32+02:00</time>
      </trkpt>
      <trkpt lat="44.98287" lon="5.8467">
        <ele>1994</ele>
        <time>2020-08-02T13:52:32+02:00</time>
      </trkpt>
      <trkpt lat="44.98287" lon="5.84657">
        <ele>1991</ele>
        <time>2020-08-02T13:52:32+02:00</time>
      </trkpt>
      <trkpt lat="44.98278" lon="5.84653">
        <ele>1989</ele>
        <time>2020-08-02T13:54:40+02:00</time>
      </trkpt>
      <trkpt lat="44.98269" lon="5.84651">
        <ele>1986</ele>
        <time>2020-08-02T13:54:40+02:00</time>
      </trkpt>
      <trkpt lat="44.9826" lon="5.84648">
        <ele>1984</ele>
        <time>2020-08-02T13:54:40+02:00</time>
      </trkpt>
      <trkpt lat="44.98252" lon="5.84643">
        <ele>1981</ele>
        <time>2020-08-02T13:54:40+02:00</time>
      </trkpt>
      <trkpt lat="44.98242" lon="5.84644">
        <ele>1979</ele>
        <time>2020-08-02T13:54:40+02:00</time>
      </trkpt>
      <trkpt lat="44.98236" lon="5.84633">
        <ele>1976</ele>
        <time>2020-08-02T13:54:40+02:00</time>
      </trkpt>
      <trkpt lat="44.98231" lon="5.84622">
        <ele>1974</ele>
        <time>2020-08-02T13:54:40+02:00</time>
      </trkpt>
      <trkpt lat="44.98226" lon="5.84611">
        <ele>1971</ele>
        <time>2020-08-02T13:54:40+02:00</time>
      </trkpt>
      <trkpt lat="44.98228" lon="5.84598">
        <ele>1971</ele>
        <time>2020-08-02T13:56:48+02:00</time>
      </trkpt>
      <trkpt lat="44.98227" lon="5.84585">
        <ele>1972</ele>
        <time>2020-08-02T13:56:48+02:00</time>
      </trkpt>
      <trkpt lat="44.98224" lon="5.84572">
        <ele>1972</ele>
        <time>2020-08-02T13:56:48+02:00</time>
      </trkpt>
      <trkpt lat="44.9822" lon="5.8456">
        <ele>1969</ele>
        <time>2020-08-02T13:56:48+02:00</time>
      </trkpt>
      <trkpt lat="44.98219" lon="5.84546">
        <ele>1968</ele>
        <time>2020-08-02T13:56:48+02:00</time>
      </trkpt>
      <trkpt lat="44.98215" lon="5.84534">
        <ele>1969</ele>
        <time>2020-08-02T13:56:48+02:00</time>
      </trkpt>
      <trkpt lat="44.98211" lon="5.84522">
        <ele>1970</ele>
        <time>2020-08-02T13:56:48+02:00</time>
      </trkpt>
      <trkpt lat="44.98209" lon="5.8451">
        <ele>1969</ele>
        <time>2020-08-02T13:56:48+02:00</time>
      </trkpt>
      <trkpt lat="44.98208" lon="5.84496">
        <ele>1968</ele>
        <time>2020-08-02T13:56:48+02:00</time>
      </trkpt>
      <trkpt lat="44.98216" lon="5.84489">
        <ele>1966</ele>
        <time>2020-08-02T13:56:48+02:00</time>
      </trkpt>
      <trkpt lat="44.98225" lon="5.84486">
        <ele>1966</ele>
        <time>2020-08-02T13:56:48+02:00</time>
      </trkpt>
      <trkpt lat="44.98235" lon="5.84488">
        <ele>1965</ele>
        <time>2020-08-02T13:56:48+02:00</time>
      </trkpt>
      <trkpt lat="44.98242" lon="5.84497">
        <ele>1965</ele>
        <time>2020-08-02T13:58:56+02:00</time>
      </trkpt>
      <trkpt lat="44.9825" lon="5.84503">
        <ele>1966</ele>
        <time>2020-08-02T13:58:56+02:00</time>
      </trkpt>
      <trkpt lat="44.98257" lon="5.84512">
        <ele>1966</ele>
        <time>2020-08-02T13:58:56+02:00</time>
      </trkpt>
      <trkpt lat="44.98266" lon="5.84517">
        <ele>1965</ele>
        <time>2020-08-02T13:58:56+02:00</time>
      </trkpt>
      <trkpt lat="44.98275" lon="5.84522">
        <ele>1964</ele>
        <time>2020-08-02T13:58:56+02:00</time>
      </trkpt>
      <trkpt lat="44.98284" lon="5.84524">
        <ele>1964</ele>
        <time>2020-08-02T13:58:56+02:00</time>
      </trkpt>
      <trkpt lat="44.98294" lon="5.84525">
        <ele>1963</ele>
        <time>2020-08-02T13:58:56+02:00</time>
      </trkpt>
      <trkpt lat="44.98302" lon="5.84519">
        <ele>1961</ele>
        <time>2020-08-02T13:58:56+02:00</time>
      </trkpt>
      <trkpt lat="44.9831" lon="5.84513">
        <ele>1960</ele>
        <time>2020-08-02T13:58:56+02:00</time>
      </trkpt>
      <trkpt lat="44.9832" lon="5.84511">
        <ele>1959</ele>
        <time>2020-08-02T13:58:56+02:00</time>
      </trkpt>
      <trkpt lat="44.9833" lon="5.84511">
        <ele>1958</ele>
        <time>2020-08-02T13:58:56+02:00</time>
      </trkpt>
      <trkpt lat="44.98339" lon="5.84515">
        <ele>1957</ele>
        <time>2020-08-02T13:58:56+02:00</time>
      </trkpt>
      <trkpt lat="44.98348" lon="5.84515">
        <ele>1956</ele>
        <time>2020-08-02T14:01:04+02:00</time>
      </trkpt>
      <trkpt lat="44.98357" lon="5.84514">
        <ele>1955</ele>
        <time>2020-08-02T14:01:04+02:00</time>
      </trkpt>
      <trkpt lat="44.98367" lon="5.84513">
        <ele>1956</ele>
        <time>2020-08-02T14:01:04+02:00</time>
      </trkpt>
      <trkpt lat="44.98376" lon="5.8451">
        <ele>1958</ele>
        <time>2020-08-02T14:01:04+02:00</time>
      </trkpt>
      <trkpt lat="44.98386" lon="5.84511">
        <ele>1957</ele>
        <time>2020-08-02T14:01:04+02:00</time>
      </trkpt>
      <trkpt lat="44.98394" lon="5.84517">
        <ele>1957</ele>
        <time>2020-08-02T14:01:04+02:00</time>
      </trkpt>
      <trkpt lat="44.98403" lon="5.84519">
        <ele>1959</ele>
        <time>2020-08-02T14:01:04+02:00</time>
      </trkpt>
      <trkpt lat="44.98413" lon="5.84519">
        <ele>1957</ele>
        <time>2020-08-02T14:01:04+02:00</time>
      </trkpt>
      <trkpt lat="44.98422" lon="5.84521">
        <ele>1957</ele>
        <time>2020-08-02T14:01:04+02:00</time>
      </trkpt>
      <trkpt lat="44.98431" lon="5.84527">
        <ele>1956</ele>
        <time>2020-08-02T14:03:12+02:00</time>
      </trkpt>
      <trkpt lat="44.98439" lon="5.84534">
        <ele>1955</ele>
        <time>2020-08-02T14:03:12+02:00</time>
      </trkpt>
      <trkpt lat="44.98448" lon="5.84531">
        <ele>1954</ele>
        <time>2020-08-02T14:03:12+02:00</time>
      </trkpt>
      <trkpt lat="44.98457" lon="5.84536">
        <ele>1952</ele>
        <time>2020-08-02T14:26:40+02:00</time>
      </trkpt>
      <trkpt lat="44.98466" lon="5.84533">
        <ele>1951</ele>
        <time>2020-08-02T14:26:40+02:00</time>
      </trkpt>
      <trkpt lat="44.98475" lon="5.84535">
        <ele>1951</ele>
        <time>2020-08-02T14:26:40+02:00</time>
      </trkpt>
      <trkpt lat="44.9847" lon="5.84523">
        <ele>1949</ele>
        <time>2020-08-02T14:26:40+02:00</time>
      </trkpt>
      <trkpt lat="44.98464" lon="5.84514">
        <ele>1951</ele>
        <time>2020-08-02T14:26:40+02:00</time>
      </trkpt>
      <trkpt lat="44.98456" lon="5.84508">
        <ele>1950</ele>
        <time>2020-08-02T14:26:40+02:00</time>
      </trkpt>
      <trkpt lat="44.98448" lon="5.84498">
        <ele>1950</ele>
        <time>2020-08-02T14:26:40+02:00</time>
      </trkpt>
      <trkpt lat="44.98441" lon="5.84489">
        <ele>1949</ele>
        <time>2020-08-02T14:26:40+02:00</time>
      </trkpt>
      <trkpt lat="44.98434" lon="5.84479">
        <ele>1949</ele>
        <time>2020-08-02T14:28:48+02:00</time>
      </trkpt>
      <trkpt lat="44.98428" lon="5.84468">
        <ele>1947</ele>
        <time>2020-08-02T14:28:48+02:00</time>
      </trkpt>
      <trkpt lat="44.9842" lon="5.84459">
        <ele>1946</ele>
        <time>2020-08-02T14:28:48+02:00</time>
      </trkpt>
      <trkpt lat="44.98414" lon="5.84449">
        <ele>1945</ele>
        <time>2020-08-02T14:28:48+02:00</time>
      </trkpt>
      <trkpt lat="44.98408" lon="5.84438">
        <ele>1944</ele>
        <time>2020-08-02T14:28:48+02:00</time>
      </trkpt>
      <trkpt lat="44.98403" lon="5.84427">
        <ele>1943</ele>
        <time>2020-08-02T14:28:48+02:00</time>
      </trkpt>
      <trkpt lat="44.98397" lon="5.84417">
        <ele>1943</ele>
        <time>2020-08-02T14:28:48+02:00</time>
      </trkpt>
      <trkpt lat="44.9839" lon="5.84409">
        <ele>1941</ele>
        <time>2020-08-02T14:28:48+02:00</time>
      </trkpt>
      <trkpt lat="44.98382" lon="5.84401">
        <ele>1940</ele>
        <time>2020-08-02T14:28:48+02:00</time>
      </trkpt>
      <trkpt lat="44.98374" lon="5.84394">
        <ele>1941</ele>
        <time>2020-08-02T14:28:48+02:00</time>
      </trkpt>
      <trkpt lat="44.98366" lon="5.84386">
        <ele>1938</ele>
        <time>2020-08-02T14:28:48+02:00</time>
      </trkpt>
      <trkpt lat="44.98359" lon="5.84377">
        <ele>1937</ele>
        <time>2020-08-02T14:28:48+02:00</time>
      </trkpt>
      <trkpt lat="44.98351" lon="5.8437">
        <ele>1938</ele>
        <time>2020-08-02T14:28:48+02:00</time>
      </trkpt>
      <trkpt lat="44.98344" lon="5.84361">
        <ele>1937</ele>
        <time>2020-08-02T14:28:48+02:00</time>
      </trkpt>
      <trkpt lat="44.98336" lon="5.84353">
        <ele>1936</ele>
        <time>2020-08-02T14:28:48+02:00</time>
      </trkpt>
      <trkpt lat="44.98328" lon="5.84349">
        <ele>1934</ele>
        <time>2020-08-02T14:30:56+02:00</time>
      </trkpt>
      <trkpt lat="44.98318" lon="5.84344">
        <ele>1933</ele>
        <time>2020-08-02T14:30:56+02:00</time>
      </trkpt>
      <trkpt lat="44.98311" lon="5.84336">
        <ele>1931</ele>
        <time>2020-08-02T14:30:56+02:00</time>
      </trkpt>
      <trkpt lat="44.98302" lon="5.84329">
        <ele>1931</ele>
        <time>2020-08-02T14:30:56+02:00</time>
      </trkpt>
      <trkpt lat="44.98294" lon="5.8432">
        <ele>1929</ele>
        <time>2020-08-02T14:30:56+02:00</time>
      </trkpt>
      <trkpt lat="44.98286" lon="5.84313">
        <ele>1927</ele>
        <time>2020-08-02T14:30:56+02:00</time>
      </trkpt>
      <trkpt lat="44.98279" lon="5.84304">
        <ele>1926</ele>
        <time>2020-08-02T14:30:56+02:00</time>
      </trkpt>
      <trkpt lat="44.98272" lon="5.84295">
        <ele>1925</ele>
        <time>2020-08-02T14:30:56+02:00</time>
      </trkpt>
      <trkpt lat="44.98265" lon="5.84287">
        <ele>1923</ele>
        <time>2020-08-02T14:30:56+02:00</time>
      </trkpt>
      <trkpt lat="44.98257" lon="5.84279">
        <ele>1920</ele>
        <time>2020-08-02T14:30:56+02:00</time>
      </trkpt>
      <trkpt lat="44.98249" lon="5.84273">
        <ele>1918</ele>
        <time>2020-08-02T14:30:56+02:00</time>
      </trkpt>
      <trkpt lat="44.98241" lon="5.84266">
        <ele>1917</ele>
        <time>2020-08-02T14:30:56+02:00</time>
      </trkpt>
      <trkpt lat="44.98233" lon="5.84259">
        <ele>1915</ele>
        <time>2020-08-02T14:30:56+02:00</time>
      </trkpt>
      <trkpt lat="44.98224" lon="5.84254">
        <ele>1913</ele>
        <time>2020-08-02T14:30:56+02:00</time>
      </trkpt>
      <trkpt lat="44.98216" lon="5.84249">
        <ele>1910</ele>
        <time>2020-08-02T14:33:04+02:00</time>
      </trkpt>
      <trkpt lat="44.98207" lon="5.84243">
        <ele>1909</ele>
        <time>2020-08-02T14:33:04+02:00</time>
      </trkpt>
      <trkpt lat="44.98199" lon="5.84236">
        <ele>1906</ele>
        <time>2020-08-02T14:33:04+02:00</time>
      </trkpt>
      <trkpt lat="44.9819" lon="5.84231">
        <ele>1905</ele>
        <time>2020-08-02T14:33:04+02:00</time>
      </trkpt>
      <trkpt lat="44.98181" lon="5.84227">
        <ele>1903</ele>
        <time>2020-08-02T14:33:04+02:00</time>
      </trkpt>
      <trkpt lat="44.98174" lon="5.84219">
        <ele>1903</ele>
        <time>2020-08-02T14:33:04+02:00</time>
      </trkpt>
      <trkpt lat="44.98166" lon="5.84212">
        <ele>1901</ele>
        <time>2020-08-02T14:33:04+02:00</time>
      </trkpt>
      <trkpt lat="44.98158" lon="5.84204">
        <ele>1900</ele>
        <time>2020-08-02T14:33:04+02:00</time>
      </trkpt>
      <trkpt lat="44.9815" lon="5.84197">
        <ele>1897</ele>
        <time>2020-08-02T14:33:04+02:00</time>
      </trkpt>
      <trkpt lat="44.98142" lon="5.8419">
        <ele>1895</ele>
        <time>2020-08-02T14:33:04+02:00</time>
      </trkpt>
      <trkpt lat="44.98134" lon="5.84185">
        <ele>1895</ele>
        <time>2020-08-02T14:33:04+02:00</time>
      </trkpt>
      <trkpt lat="44.98127" lon="5.84177">
        <ele>1895</ele>
        <time>2020-08-02T14:33:04+02:00</time>
      </trkpt>
      <trkpt lat="44.98117" lon="5.84173">
        <ele>1894</ele>
        <time>2020-08-02T14:33:04+02:00</time>
      </trkpt>
      <trkpt lat="44.98108" lon="5.84176">
        <ele>1890</ele>
        <time>2020-08-02T14:33:04+02:00</time>
      </trkpt>
      <trkpt lat="44.98099" lon="5.8418">
        <ele>1887</ele>
        <time>2020-08-02T14:35:12+02:00</time>
      </trkpt>
      <trkpt lat="44.9809" lon="5.84179">
        <ele>1882</ele>
        <time>2020-08-02T14:35:12+02:00</time>
      </trkpt>
      <trkpt lat="44.98081" lon="5.84172">
        <ele>1882</ele>
        <time>2020-08-02T14:35:12+02:00</time>
      </trkpt>
      <trkpt lat="44.98073" lon="5.84166">
        <ele>1878</ele>
        <time>2020-08-02T14:35:12+02:00</time>
      </trkpt>
      <trkpt lat="44.98066" lon="5.8416">
        <ele>1878</ele>
        <time>2020-08-02T14:35:12+02:00</time>
      </trkpt>
      <trkpt lat="44.98056" lon="5.84159">
        <ele>1876</ele>
        <time>2020-08-02T14:35:12+02:00</time>
      </trkpt>
      <trkpt lat="44.98047" lon="5.84157">
        <ele>1873</ele>
        <time>2020-08-02T14:35:12+02:00</time>
      </trkpt>
      <trkpt lat="44.98037" lon="5.84157">
        <ele>1871</ele>
        <time>2020-08-02T14:35:12+02:00</time>
      </trkpt>
      <trkpt lat="44.98028" lon="5.8416">
        <ele>1869</ele>
        <time>2020-08-02T14:35:12+02:00</time>
      </trkpt>
      <trkpt lat="44.9802" lon="5.84167">
        <ele>1869</ele>
        <time>2020-08-02T14:35:12+02:00</time>
      </trkpt>
      <trkpt lat="44.98013" lon="5.84174">
        <ele>1867</ele>
        <time>2020-08-02T14:35:12+02:00</time>
      </trkpt>
      <trkpt lat="44.98004" lon="5.84169">
        <ele>1865</ele>
        <time>2020-08-02T14:35:12+02:00</time>
      </trkpt>
      <trkpt lat="44.97996" lon="5.84177">
        <ele>1864</ele>
        <time>2020-08-02T14:37:20+02:00</time>
      </trkpt>
      <trkpt lat="44.97986" lon="5.84178">
        <ele>1862</ele>
        <time>2020-08-02T14:37:20+02:00</time>
      </trkpt>
      <trkpt lat="44.97978" lon="5.8417">
        <ele>1860</ele>
        <time>2020-08-02T14:37:20+02:00</time>
      </trkpt>
      <trkpt lat="44.97971" lon="5.84162">
        <ele>1859</ele>
        <time>2020-08-02T14:37:20+02:00</time>
      </trkpt>
      <trkpt lat="44.97962" lon="5.84163">
        <ele>1858</ele>
        <time>2020-08-02T14:37:20+02:00</time>
      </trkpt>
      <trkpt lat="44.97953" lon="5.84157">
        <ele>1855</ele>
        <time>2020-08-02T14:37:20+02:00</time>
      </trkpt>
      <trkpt lat="44.97943" lon="5.84158">
        <ele>1855</ele>
        <time>2020-08-02T14:37:20+02:00</time>
      </trkpt>
      <trkpt lat="44.97934" lon="5.84155">
        <ele>1854</ele>
        <time>2020-08-02T14:37:20+02:00</time>
      </trkpt>
      <trkpt lat="44.97926" lon="5.84149">
        <ele>1853</ele>
        <time>2020-08-02T14:37:20+02:00</time>
      </trkpt>
      <trkpt lat="44.97917" lon="5.84142">
        <ele>1848</ele>
        <time>2020-08-02T14:37:20+02:00</time>
      </trkpt>
      <trkpt lat="44.97909" lon="5.84135">
        <ele>1848</ele>
        <time>2020-08-02T14:39:28+02:00</time>
      </trkpt>
      <trkpt lat="44.97902" lon="5.84127">
        <ele>1846</ele>
        <time>2020-08-02T14:39:28+02:00</time>
      </trkpt>
      <trkpt lat="44.97894" lon="5.84119">
        <ele>1844</ele>
        <time>2020-08-02T14:39:28+02:00</time>
      </trkpt>
      <trkpt lat="44.97884" lon="5.84117">
        <ele>1842</ele>
        <time>2020-08-02T14:39:28+02:00</time>
      </trkpt>
      <trkpt lat="44.97875" lon="5.84116">
        <ele>1842</ele>
        <time>2020-08-02T14:39:28+02:00</time>
      </trkpt>
      <trkpt lat="44.97867" lon="5.8411">
        <ele>1839</ele>
        <time>2020-08-02T14:39:28+02:00</time>
      </trkpt>
      <trkpt lat="44.97858" lon="5.84105">
        <ele>1836</ele>
        <time>2020-08-02T14:39:28+02:00</time>
      </trkpt>
      <trkpt lat="44.97849" lon="5.841">
        <ele>1836</ele>
        <time>2020-08-02T14:39:28+02:00</time>
      </trkpt>
      <trkpt lat="44.9784" lon="5.84096">
        <ele>1834</ele>
        <time>2020-08-02T14:39:28+02:00</time>
      </trkpt>
      <trkpt lat="44.97831" lon="5.84092">
        <ele>1832</ele>
        <time>2020-08-02T14:39:28+02:00</time>
      </trkpt>
      <trkpt lat="44.97822" lon="5.84088">
        <ele>1830</ele>
        <time>2020-08-02T14:39:28+02:00</time>
      </trkpt>
      <trkpt lat="44.97813" lon="5.84084">
        <ele>1829</ele>
        <time>2020-08-02T14:41:36+02:00</time>
      </trkpt>
      <trkpt lat="44.97805" lon="5.84076">
        <ele>1825</ele>
        <time>2020-08-02T14:41:36+02:00</time>
      </trkpt>
      <trkpt lat="44.97797" lon="5.84069">
        <ele>1824</ele>
        <time>2020-08-02T14:41:36+02:00</time>
      </trkpt>
      <trkpt lat="44.97788" lon="5.84063">
        <ele>1821</ele>
        <time>2020-08-02T14:41:36+02:00</time>
      </trkpt>
      <trkpt lat="44.97781" lon="5.84055">
        <ele>1819</ele>
        <time>2020-08-02T14:41:36+02:00</time>
      </trkpt>
      <trkpt lat="44.97773" lon="5.84048">
        <ele>1818</ele>
        <time>2020-08-02T14:41:36+02:00</time>
      </trkpt>
      <trkpt lat="44.97765" lon="5.84039">
        <ele>1816</ele>
        <time>2020-08-02T14:41:36+02:00</time>
      </trkpt>
      <trkpt lat="44.97756" lon="5.84036">
        <ele>1813</ele>
        <time>2020-08-02T14:41:36+02:00</time>
      </trkpt>
      <trkpt lat="44.97747" lon="5.84029">
        <ele>1810</ele>
        <time>2020-08-02T14:41:36+02:00</time>
      </trkpt>
      <trkpt lat="44.9774" lon="5.8402">
        <ele>1808</ele>
        <time>2020-08-02T14:41:36+02:00</time>
      </trkpt>
      <trkpt lat="44.97734" lon="5.8401">
        <ele>1806</ele>
        <time>2020-08-02T14:41:36+02:00</time>
      </trkpt>
      <trkpt lat="44.97727" lon="5.84001">
        <ele>1803</ele>
        <time>2020-08-02T14:43:44+02:00</time>
      </trkpt>
      <trkpt lat="44.97721" lon="5.83992">
        <ele>1800</ele>
        <time>2020-08-02T14:43:44+02:00</time>
      </trkpt>
      <trkpt lat="44.97716" lon="5.83981">
        <ele>1799</ele>
        <time>2020-08-02T14:43:44+02:00</time>
      </trkpt>
      <trkpt lat="44.97709" lon="5.83972">
        <ele>1797</ele>
        <time>2020-08-02T14:43:44+02:00</time>
      </trkpt>
      <trkpt lat="44.97702" lon="5.83964">
        <ele>1794</ele>
        <time>2020-08-02T14:43:44+02:00</time>
      </trkpt>
      <trkpt lat="44.97692" lon="5.8396">
        <ele>1793</ele>
        <time>2020-08-02T14:43:44+02:00</time>
      </trkpt>
      <trkpt lat="44.97684" lon="5.83954">
        <ele>1790</ele>
        <time>2020-08-02T14:43:44+02:00</time>
      </trkpt>
      <trkpt lat="44.97677" lon="5.83944">
        <ele>1789</ele>
        <time>2020-08-02T14:43:44+02:00</time>
      </trkpt>
      <trkpt lat="44.9767" lon="5.83935">
        <ele>1786</ele>
        <time>2020-08-02T14:48:00+02:00</time>
      </trkpt>
      <trkpt lat="44.97661" lon="5.83927">
        <ele>1784</ele>
        <time>2020-08-02T14:48:00+02:00</time>
      </trkpt>
      <trkpt lat="44.97652" lon="5.83922">
        <ele>1780</ele>
        <time>2020-08-02T14:48:00+02:00</time>
      </trkpt>
      <trkpt lat="44.97643" lon="5.83914">
        <ele>1778</ele>
        <time>2020-08-02T14:48:00+02:00</time>
      </trkpt>
      <trkpt lat="44.97638" lon="5.83903">
        <ele>1776</ele>
        <time>2020-08-02T14:48:00+02:00</time>
      </trkpt>
      <trkpt lat="44.97631" lon="5.83894">
        <ele>1775</ele>
        <time>2020-08-02T14:48:00+02:00</time>
      </trkpt>
      <trkpt lat="44.97624" lon="5.83887">
        <ele>1773</ele>
        <time>2020-08-02T14:48:00+02:00</time>
      </trkpt>
      <trkpt lat="44.97617" lon="5.83877">
        <ele>1770</ele>
        <time>2020-08-02T14:48:00+02:00</time>
      </trkpt>
      <trkpt lat="44.9761" lon="5.83869">
        <ele>1769</ele>
        <time>2020-08-02T14:48:00+02:00</time>
      </trkpt>
      <trkpt lat="44.97602" lon="5.83861">
        <ele>1767</ele>
        <time>2020-08-02T14:48:00+02:00</time>
      </trkpt>
      <trkpt lat="44.97594" lon="5.83855">
        <ele>1764</ele>
        <time>2020-08-02T14:50:08+02:00</time>
      </trkpt>
      <trkpt lat="44.97588" lon="5.83845">
        <ele>1762</ele>
        <time>2020-08-02T14:50:08+02:00</time>
      </trkpt>
      <trkpt lat="44.97583" lon="5.83835">
        <ele>1761</ele>
        <time>2020-08-02T14:50:08+02:00</time>
      </trkpt>
      <trkpt lat="44.97576" lon="5.83826">
        <ele>1757</ele>
        <time>2020-08-02T14:50:08+02:00</time>
      </trkpt>
      <trkpt lat="44.97569" lon="5.83816">
        <ele>1755</ele>
        <time>2020-08-02T14:50:08+02:00</time>
      </trkpt>
      <trkpt lat="44.97564" lon="5.83805">
        <ele>1753</ele>
        <time>2020-08-02T14:50:08+02:00</time>
      </trkpt>
      <trkpt lat="44.97559" lon="5.83794">
        <ele>1756</ele>
        <time>2020-08-02T14:50:08+02:00</time>
      </trkpt>
      <trkpt lat="44.97553" lon="5.83784">
        <ele>1753</ele>
        <time>2020-08-02T14:50:08+02:00</time>
      </trkpt>
      <trkpt lat="44.97549" lon="5.83771">
        <ele>1751</ele>
        <time>2020-08-02T14:50:08+02:00</time>
      </trkpt>
      <trkpt lat="44.97545" lon="5.83759">
        <ele>1750</ele>
        <time>2020-08-02T14:50:08+02:00</time>
      </trkpt>
      <trkpt lat="44.97542" lon="5.83747">
        <ele>1746</ele>
        <time>2020-08-02T14:50:08+02:00</time>
      </trkpt>
      <trkpt lat="44.9754" lon="5.83734">
        <ele>1746</ele>
        <time>2020-08-02T14:50:08+02:00</time>
      </trkpt>
      <trkpt lat="44.97539" lon="5.8372">
        <ele>1747</ele>
        <time>2020-08-02T14:50:08+02:00</time>
      </trkpt>
      <trkpt lat="44.97537" lon="5.83708">
        <ele>1747</ele>
        <time>2020-08-02T14:52:16+02:00</time>
      </trkpt>
      <trkpt lat="44.97535" lon="5.83695">
        <ele>1745</ele>
        <time>2020-08-02T14:52:16+02:00</time>
      </trkpt>
      <trkpt lat="44.97535" lon="5.83682">
        <ele>1742</ele>
        <time>2020-08-02T14:52:16+02:00</time>
      </trkpt>
      <trkpt lat="44.9754" lon="5.83671">
        <ele>1737</ele>
        <time>2020-08-02T14:52:16+02:00</time>
      </trkpt>
      <trkpt lat="44.97542" lon="5.83658">
        <ele>1736</ele>
        <time>2020-08-02T14:52:16+02:00</time>
      </trkpt>
      <trkpt lat="44.97548" lon="5.83647">
        <ele>1736</ele>
        <time>2020-08-02T14:52:16+02:00</time>
      </trkpt>
      <trkpt lat="44.97552" lon="5.83635">
        <ele>1734</ele>
        <time>2020-08-02T14:52:16+02:00</time>
      </trkpt>
      <trkpt lat="44.97553" lon="5.83622">
        <ele>1731</ele>
        <time>2020-08-02T14:52:16+02:00</time>
      </trkpt>
      <trkpt lat="44.97551" lon="5.83609">
        <ele>1731</ele>
        <time>2020-08-02T14:52:16+02:00</time>
      </trkpt>
      <trkpt lat="44.97547" lon="5.83594">
        <ele>1733</ele>
        <time>2020-08-02T14:52:16+02:00</time>
      </trkpt>
      <trkpt lat="44.97544" lon="5.83581">
        <ele>1732</ele>
        <time>2020-08-02T14:52:16+02:00</time>
      </trkpt>
      <trkpt lat="44.97543" lon="5.83567">
        <ele>1730</ele>
        <time>2020-08-02T14:54:24+02:00</time>
      </trkpt>
      <trkpt lat="44.97542" lon="5.83554">
        <ele>1726</ele>
        <time>2020-08-02T14:54:24+02:00</time>
      </trkpt>
      <trkpt lat="44.97541" lon="5.83541">
        <ele>1722</ele>
        <time>2020-08-02T14:54:24+02:00</time>
      </trkpt>
      <trkpt lat="44.97538" lon="5.83529">
        <ele>1720</ele>
        <time>2020-08-02T14:54:24+02:00</time>
      </trkpt>
      <trkpt lat="44.97534" lon="5.83515">
        <ele>1720</ele>
        <time>2020-08-02T14:54:24+02:00</time>
      </trkpt>
      <trkpt lat="44.97532" lon="5.83502">
        <ele>1719</ele>
        <time>2020-08-02T14:54:24+02:00</time>
      </trkpt>
      <trkpt lat="44.9753" lon="5.83489">
        <ele>1715</ele>
        <time>2020-08-02T14:54:24+02:00</time>
      </trkpt>
      <trkpt lat="44.97524" lon="5.83479">
        <ele>1711</ele>
        <time>2020-08-02T14:54:24+02:00</time>
      </trkpt>
      <trkpt lat="44.97521" lon="5.83467">
        <ele>1711</ele>
        <time>2020-08-02T14:54:24+02:00</time>
      </trkpt>
      <trkpt lat="44.97515" lon="5.83455">
        <ele>1710</ele>
        <time>2020-08-02T14:54:24+02:00</time>
      </trkpt>
      <trkpt lat="44.9751" lon="5.83444">
        <ele>1708</ele>
        <time>2020-08-02T14:54:24+02:00</time>
      </trkpt>
      <trkpt lat="44.97506" lon="5.83433">
        <ele>1706</ele>
        <time>2020-08-02T14:54:24+02:00</time>
      </trkpt>
      <trkpt lat="44.97502" lon="5.83421">
        <ele>1704</ele>
        <time>2020-08-02T14:54:24+02:00</time>
      </trkpt>
      <trkpt lat="44.97497" lon="5.83411">
        <ele>1705</ele>
        <time>2020-08-02T14:54:24+02:00</time>
      </trkpt>
      <trkpt lat="44.97493" lon="5.83399">
        <ele>1704</ele>
        <time>2020-08-02T14:56:32+02:00</time>
      </trkpt>
      <trkpt lat="44.97489" lon="5.83387">
        <ele>1704</ele>
        <time>2020-08-02T14:56:32+02:00</time>
      </trkpt>
      <trkpt lat="44.97485" lon="5.83373">
        <ele>1701</ele>
        <time>2020-08-02T14:56:32+02:00</time>
      </trkpt>
      <trkpt lat="44.97482" lon="5.83359">
        <ele>1700</ele>
        <time>2020-08-02T14:56:32+02:00</time>
      </trkpt>
      <trkpt lat="44.9748" lon="5.83346">
        <ele>1697</ele>
        <time>2020-08-02T14:56:32+02:00</time>
      </trkpt>
      <trkpt lat="44.97476" lon="5.83335">
        <ele>1697</ele>
        <time>2020-08-02T14:56:32+02:00</time>
      </trkpt>
      <trkpt lat="44.97471" lon="5.83323">
        <ele>1695</ele>
        <time>2020-08-02T14:56:32+02:00</time>
      </trkpt>
      <trkpt lat="44.97468" lon="5.83311">
        <ele>1694</ele>
        <time>2020-08-02T14:56:32+02:00</time>
      </trkpt>
      <trkpt lat="44.97463" lon="5.83299">
        <ele>1691</ele>
        <time>2020-08-02T14:56:32+02:00</time>
      </trkpt>
      <trkpt lat="44.9746" lon="5.83286">
        <ele>1690</ele>
        <time>2020-08-02T14:56:32+02:00</time>
      </trkpt>
      <trkpt lat="44.97455" lon="5.83274">
        <ele>1686</ele>
        <time>2020-08-02T14:56:32+02:00</time>
      </trkpt>
      <trkpt lat="44.97451" lon="5.83263">
        <ele>1685</ele>
        <time>2020-08-02T14:56:32+02:00</time>
      </trkpt>
      <trkpt lat="44.97446" lon="5.83251">
        <ele>1683</ele>
        <time>2020-08-02T14:58:40+02:00</time>
      </trkpt>
      <trkpt lat="44.97443" lon="5.83236">
        <ele>1681</ele>
        <time>2020-08-02T14:58:40+02:00</time>
      </trkpt>
      <trkpt lat="44.97442" lon="5.83223">
        <ele>1679</ele>
        <time>2020-08-02T14:58:40+02:00</time>
      </trkpt>
      <trkpt lat="44.9744" lon="5.83207">
        <ele>1678</ele>
        <time>2020-08-02T14:58:40+02:00</time>
      </trkpt>
      <trkpt lat="44.97438" lon="5.83194">
        <ele>1677</ele>
        <time>2020-08-02T14:58:40+02:00</time>
      </trkpt>
      <trkpt lat="44.97434" lon="5.83182">
        <ele>1673</ele>
        <time>2020-08-02T14:58:40+02:00</time>
      </trkpt>
      <trkpt lat="44.97431" lon="5.83168">
        <ele>1671</ele>
        <time>2020-08-02T14:58:40+02:00</time>
      </trkpt>
      <trkpt lat="44.97429" lon="5.83155">
        <ele>1670</ele>
        <time>2020-08-02T14:58:40+02:00</time>
      </trkpt>
      <trkpt lat="44.97428" lon="5.83142">
        <ele>1669</ele>
        <time>2020-08-02T14:58:40+02:00</time>
      </trkpt>
      <trkpt lat="44.97426" lon="5.8313">
        <ele>1668</ele>
        <time>2020-08-02T14:58:40+02:00</time>
      </trkpt>
      <trkpt lat="44.97424" lon="5.83117">
        <ele>1669</ele>
        <time>2020-08-02T15:00:48+02:00</time>
      </trkpt>
      <trkpt lat="44.97423" lon="5.83104">
        <ele>1666</ele>
        <time>2020-08-02T15:00:48+02:00</time>
      </trkpt>
      <trkpt lat="44.9742" lon="5.83092">
        <ele>1664</ele>
        <time>2020-08-02T15:00:48+02:00</time>
      </trkpt>
      <trkpt lat="44.97417" lon="5.8308">
        <ele>1663</ele>
        <time>2020-08-02T15:00:48+02:00</time>
      </trkpt>
      <trkpt lat="44.9742" lon="5.83067">
        <ele>1661</ele>
        <time>2020-08-02T15:00:48+02:00</time>
      </trkpt>
      <trkpt lat="44.97422" lon="5.83055">
        <ele>1658</ele>
        <time>2020-08-02T15:00:48+02:00</time>
      </trkpt>
      <trkpt lat="44.97421" lon="5.83039">
        <ele>1655</ele>
        <time>2020-08-02T15:00:48+02:00</time>
      </trkpt>
      <trkpt lat="44.97421" lon="5.83024">
        <ele>1653</ele>
        <time>2020-08-02T15:00:48+02:00</time>
      </trkpt>
      <trkpt lat="44.97419" lon="5.83009">
        <ele>1647</ele>
        <time>2020-08-02T15:00:48+02:00</time>
      </trkpt>
      <trkpt lat="44.97417" lon="5.82995">
        <ele>1644</ele>
        <time>2020-08-02T15:00:48+02:00</time>
      </trkpt>
      <trkpt lat="44.97414" lon="5.82981">
        <ele>1638</ele>
        <time>2020-08-02T15:00:48+02:00</time>
      </trkpt>
      <trkpt lat="44.97418" lon="5.82969">
        <ele>1629</ele>
        <time>2020-08-02T15:00:48+02:00</time>
      </trkpt>
      <trkpt lat="44.97422" lon="5.82954">
        <ele>1623</ele>
        <time>2020-08-02T15:02:56+02:00</time>
      </trkpt>
      <trkpt lat="44.97416" lon="5.82943">
        <ele>1622</ele>
        <time>2020-08-02T15:02:56+02:00</time>
      </trkpt>
      <trkpt lat="44.9741" lon="5.82934">
        <ele>1624</ele>
        <time>2020-08-02T15:02:56+02:00</time>
      </trkpt>
      <trkpt lat="44.97402" lon="5.82926">
        <ele>1626</ele>
        <time>2020-08-02T15:02:56+02:00</time>
      </trkpt>
      <trkpt lat="44.97396" lon="5.82917">
        <ele>1625</ele>
        <time>2020-08-02T15:02:56+02:00</time>
      </trkpt>
      <trkpt lat="44.97388" lon="5.82909">
        <ele>1624</ele>
        <time>2020-08-02T15:02:56+02:00</time>
      </trkpt>
      <trkpt lat="44.9738" lon="5.82904">
        <ele>1618</ele>
        <time>2020-08-02T15:02:56+02:00</time>
      </trkpt>
      <trkpt lat="44.97373" lon="5.82896">
        <ele>1618</ele>
        <time>2020-08-02T15:05:04+02:00</time>
      </trkpt>
      <trkpt lat="44.97365" lon="5.82887">
        <ele>1616</ele>
        <time>2020-08-02T15:05:04+02:00</time>
      </trkpt>
      <trkpt lat="44.97359" lon="5.82877">
        <ele>1616</ele>
        <time>2020-08-02T15:05:04+02:00</time>
      </trkpt>
      <trkpt lat="44.97351" lon="5.82869">
        <ele>1616</ele>
        <time>2020-08-02T15:05:04+02:00</time>
      </trkpt>
      <trkpt lat="44.9734" lon="5.82866">
        <ele>1616</ele>
        <time>2020-08-02T15:05:04+02:00</time>
      </trkpt>
      <trkpt lat="44.97331" lon="5.82858">
        <ele>1615</ele>
        <time>2020-08-02T15:05:04+02:00</time>
      </trkpt>
      <trkpt lat="44.97323" lon="5.82852">
        <ele>1610</ele>
        <time>2020-08-02T15:05:04+02:00</time>
      </trkpt>
      <trkpt lat="44.97315" lon="5.82844">
        <ele>1606</ele>
        <time>2020-08-02T15:05:04+02:00</time>
      </trkpt>
      <trkpt lat="44.97307" lon="5.82836">
        <ele>1600</ele>
        <time>2020-08-02T15:05:04+02:00</time>
      </trkpt>
      <trkpt lat="44.97301" lon="5.82827">
        <ele>1595</ele>
        <time>2020-08-02T15:05:04+02:00</time>
      </trkpt>
      <trkpt lat="44.97295" lon="5.82816">
        <ele>1593</ele>
        <time>2020-08-02T15:05:04+02:00</time>
      </trkpt>
      <trkpt lat="44.97288" lon="5.82807">
        <ele>1590</ele>
        <time>2020-08-02T15:05:04+02:00</time>
      </trkpt>
      <trkpt lat="44.97279" lon="5.82803">
        <ele>1589</ele>
        <time>2020-08-02T15:07:12+02:00</time>
      </trkpt>
      <trkpt lat="44.97271" lon="5.82797">
        <ele>1587</ele>
        <time>2020-08-02T15:07:12+02:00</time>
      </trkpt>
      <trkpt lat="44.97262" lon="5.8279">
        <ele>1587</ele>
        <time>2020-08-02T15:07:12+02:00</time>
      </trkpt>
      <trkpt lat="44.97253" lon="5.82786">
        <ele>1587</ele>
        <time>2020-08-02T15:07:12+02:00</time>
      </trkpt>
      <trkpt lat="44.97249" lon="5.82775">
        <ele>1577</ele>
        <time>2020-08-02T15:07:12+02:00</time>
      </trkpt>
      <trkpt lat="44.97241" lon="5.82766">
        <ele>1574</ele>
        <time>2020-08-02T15:07:12+02:00</time>
      </trkpt>
      <trkpt lat="44.97236" lon="5.82754">
        <ele>1572</ele>
        <time>2020-08-02T15:07:12+02:00</time>
      </trkpt>
      <trkpt lat="44.97233" lon="5.82742">
        <ele>1569</ele>
        <time>2020-08-02T15:07:12+02:00</time>
      </trkpt>
      <trkpt lat="44.9723" lon="5.82729">
        <ele>1566</ele>
        <time>2020-08-02T15:07:12+02:00</time>
      </trkpt>
      <trkpt lat="44.97228" lon="5.82716">
        <ele>1563</ele>
        <time>2020-08-02T15:07:12+02:00</time>
      </trkpt>
      <trkpt lat="44.97228" lon="5.82703">
        <ele>1561</ele>
        <time>2020-08-02T15:07:12+02:00</time>
      </trkpt>
      <trkpt lat="44.97229" lon="5.8269">
        <ele>1560</ele>
        <time>2020-08-02T15:07:12+02:00</time>
      </trkpt>
      <trkpt lat="44.9723" lon="5.82676">
        <ele>1558</ele>
        <time>2020-08-02T15:09:20+02:00</time>
      </trkpt>
      <trkpt lat="44.97232" lon="5.82663">
        <ele>1555</ele>
        <time>2020-08-02T15:09:20+02:00</time>
      </trkpt>
      <trkpt lat="44.97233" lon="5.8265">
        <ele>1555</ele>
        <time>2020-08-02T15:09:20+02:00</time>
      </trkpt>
      <trkpt lat="44.97235" lon="5.82636">
        <ele>1554</ele>
        <time>2020-08-02T15:09:20+02:00</time>
      </trkpt>
      <trkpt lat="44.97237" lon="5.82623">
        <ele>1553</ele>
        <time>2020-08-02T15:09:20+02:00</time>
      </trkpt>
      <trkpt lat="44.97239" lon="5.82609">
        <ele>1553</ele>
        <time>2020-08-02T15:09:20+02:00</time>
      </trkpt>
      <trkpt lat="44.97243" lon="5.82597">
        <ele>1552</ele>
        <time>2020-08-02T15:09:20+02:00</time>
      </trkpt>
      <trkpt lat="44.97245" lon="5.82584">
        <ele>1552</ele>
        <time>2020-08-02T15:09:20+02:00</time>
      </trkpt>
      <trkpt lat="44.97244" lon="5.8257">
        <ele>1552</ele>
        <time>2020-08-02T15:09:20+02:00</time>
      </trkpt>
      <trkpt lat="44.97245" lon="5.82557">
        <ele>1553</ele>
        <time>2020-08-02T15:09:20+02:00</time>
      </trkpt>
      <trkpt lat="44.97249" lon="5.82546">
        <ele>1554</ele>
        <time>2020-08-02T15:09:20+02:00</time>
      </trkpt>
    </trkseg>
  </trk>
</gpx>